Time,TemperatureF,DewpointF,PressureIn,WindDirection,WindDirectionDegrees,WindSpeedMPH,WindSpeedGustMPH,Humidity,HourlyPrecipIn,Conditions,Clouds,dailyrainin,SoftwareType,DateUTC
2013-08-04 00:01:00,72.1,72.2,29.21,NE,45,0.0,0.0,100,0.00,,,0.00,VWS V13.01,2013-08-04 05:01:00,
2013-08-04 00:02:00,72.0,72.0,29.21,NE,45,0.0,0.0,100,0.00,,,0.00,VWS V13.01,2013-08-04 05:02:00,
2013-08-04 00:03:00,72.0,72.0,29.21,NE,45,0.0,0.0,100,0.00,,,0.00,VWS V13.01,2013-08-04 05:03:00,
2013-08-04 00:06:00,72.0,72.0,29.21,NE,45,0.0,0.0,100,0.00,,,0.00,VWS V13.01,2013-08-04 05:06:00,
2013-08-04 00:07:00,72.0,72.0,29.21,NE,45,0.0,0.0,100,0.00,,,0.00,VWS V13.01,2013-08-04 05:07:00,
2013-08-04 00:12:00,72.0,72.0,29.21,NE,45,0.0,0.0,100,0.00,,,0.00,VWS V13.01,2013-08-04 05:12:00,
2013-08-04 00:13:00,72.0,72.0,29.21,NE,45,0.0,0.0,100,0.00,,,0.00,VWS V13.01,2013-08-04 05:13:00,
2013-08-04 00:17:00,72.0,72.0,29.21,NE,45,0.0,0.0,100,0.00,,,0.00,VWS V13.01,2013-08-04 05:17:00,
2013-08-04 00:18:00,72.0,72.0,29.21,NE,45,0.0,0.0,100,0.00,,,0.00,VWS V13.01,2013-08-04 05:18:00,
2013-08-04 00:22:00,72.0,72.0,29.21,NE,45,0.0,0.0,100,0.00,,,0.00,VWS V13.01,2013-08-04 05:22:00,
2013-08-04 00:23:00,72.0,72.0,29.21,NE,45,0.0,0.0,100,0.00,,,0.00,VWS V13.01,2013-08-04 05:23:00,
2013-08-04 00:27:00,72.0,72.0,29.21,NE,45,0.0,0.0,100,0.00,,,0.00,VWS V13.01,2013-08-04 05:27:00,
2013-08-04 00:28:00,72.0,72.0,29.21,NE,45,0.0,0.0,100,0.00,,,0.00,VWS V13.01,2013-08-04 05:28:00,
2013-08-04 00:32:00,72.0,72.0,29.21,NE,45,0.0,0.0,100,0.00,,,0.00,VWS V13.01,2013-08-04 05:32:00,
2013-08-04 00:33:00,72.0,72.0,29.21,NE,45,0.0,0.0,100,0.00,,,0.00,VWS V13.01,2013-08-04 05:33:00,
2013-08-04 00:37:00,71.8,71.8,29.21,NE,45,0.0,0.0,100,0.00,,,0.00,VWS V13.01,2013-08-04 05:37:00,
2013-08-04 00:38:00,71.8,71.8,29.21,NE,45,0.0,0.0,100,0.00,,,0.00,VWS V13.01,2013-08-04 05:38:00,
2013-08-04 00:42:00,71.8,71.8,29.21,North,349,0.0,0.0,100,0.00,,,0.00,VWS V13.01,2013-08-04 05:42:00,
2013-08-04 00:43:00,71.6,71.6,29.21,North,349,0.0,0.0,100,0.00,,,0.00,VWS V13.01,2013-08-04 05:43:00,
2013-08-04 00:47:00,71.8,71.8,29.21,NNE,20,0.0,0.0,100,0.00,,,0.00,VWS V13.01,2013-08-04 05:47:00,
2013-08-04 00:48:00,71.8,71.8,29.21,NE,43,0.0,0.0,100,0.00,,,0.00,VWS V13.01,2013-08-04 05:48:00,
2013-08-04 00:52:00,71.8,71.8,29.21,NE,43,0.0,0.0,100,0.00,,,0.00,VWS V13.01,2013-08-04 05:52:00,
2013-08-04 00:53:00,71.8,71.8,29.21,NE,43,0.0,0.0,100,0.00,,,0.00,VWS V13.01,2013-08-04 05:53:00,
2013-08-04 00:58:00,72.0,72.0,29.21,NE,50,0.0,0.0,100,0.00,,,0.00,VWS V13.01,2013-08-04 05:58:00,
2013-08-04 01:03:00,72.0,72.0,29.21,ENE,70,0.0,0.0,100,0.00,,,0.00,VWS V13.01,2013-08-04 06:03:00,
2013-08-04 01:04:00,72.0,72.0,29.21,ENE,70,0.0,0.0,100,0.00,,,0.00,VWS V13.01,2013-08-04 06:04:00,
2013-08-04 01:08:00,72.0,72.0,29.21,ENE,69,0.0,0.0,100,0.00,,,0.00,VWS V13.01,2013-08-04 06:08:00,
2013-08-04 01:09:00,72.0,72.0,29.21,ENE,69,0.0,0.0,100,0.00,,,0.00,VWS V13.01,2013-08-04 06:09:00,
2013-08-04 01:13:00,72.1,72.2,29.21,ENE,73,0.0,0.0,100,0.00,,,0.00,VWS V13.01,2013-08-04 06:13:00,
2013-08-04 01:14:00,72.1,72.2,29.21,ENE,65,0.0,0.0,100,0.00,,,0.00,VWS V13.01,2013-08-04 06:14:00,
2013-08-04 01:18:00,72.3,72.3,29.21,ENE,68,0.0,0.0,100,0.00,,,0.00,VWS V13.01,2013-08-04 06:18:00,
2013-08-04 01:19:00,72.3,72.3,29.21,ENE,68,0.0,0.0,100,0.00,,,0.00,VWS V13.01,2013-08-04 06:19:00,
2013-08-04 01:23:00,72.3,72.3,29.21,ENE,68,0.0,0.0,100,0.00,,,0.00,VWS V13.01,2013-08-04 06:23:00,
2013-08-04 01:24:00,72.1,72.2,29.21,ENE,68,0.0,0.0,100,0.00,,,0.00,VWS V13.01,2013-08-04 06:24:00,
2013-08-04 01:28:00,72.1,72.2,29.21,ENE,59,0.0,0.0,100,0.00,,,0.00,VWS V13.01,2013-08-04 06:28:00,
2013-08-04 01:29:00,72.1,72.2,29.21,NE,51,0.0,0.0,100,0.00,,,0.00,VWS V13.01,2013-08-04 06:29:00,
2013-08-04 01:33:00,72.1,72.2,29.21,ENE,57,0.0,0.0,100,0.00,,,0.00,VWS V13.01,2013-08-04 06:33:00,
2013-08-04 01:34:00,72.1,72.2,29.21,ENE,63,0.0,0.0,100,0.00,,,0.00,VWS V13.01,2013-08-04 06:34:00,
2013-08-04 01:38:00,72.1,72.2,29.21,ENE,59,0.0,0.0,100,0.00,,,0.00,VWS V13.01,2013-08-04 06:38:00,
2013-08-04 01:39:00,72.1,72.2,29.21,ENE,59,0.0,0.0,100,0.00,,,0.00,VWS V13.01,2013-08-04 06:39:00,
2013-08-04 01:43:00,72.0,72.0,29.21,ENE,61,0.0,0.0,100,0.00,,,0.00,VWS V13.01,2013-08-04 06:43:00,
2013-08-04 01:44:00,72.0,72.0,29.21,ENE,62,0.0,0.0,100,0.00,,,0.00,VWS V13.01,2013-08-04 06:44:00,
2013-08-04 01:48:00,71.8,71.8,29.21,ENE,64,0.0,0.0,100,0.00,,,0.00,VWS V13.01,2013-08-04 06:48:00,
2013-08-04 01:49:00,71.8,71.8,29.21,ENE,64,0.0,0.0,100,0.00,,,0.00,VWS V13.01,2013-08-04 06:49:00,
2013-08-04 01:53:00,71.4,71.4,29.21,ENE,62,0.0,0.0,100,0.00,,,0.00,VWS V13.01,2013-08-04 06:53:00,
2013-08-04 01:54:00,71.4,71.4,29.21,NE,56,0.0,0.0,100,0.00,,,0.00,VWS V13.01,2013-08-04 06:54:00,
2013-08-04 01:58:00,71.2,71.2,29.18,ENE,68,0.0,0.0,100,0.00,,,0.00,VWS V13.01,2013-08-04 06:58:00,
2013-08-04 01:59:00,71.2,71.2,29.18,ENE,72,0.0,0.0,100,0.00,,,0.00,VWS V13.01,2013-08-04 06:59:00,
2013-08-04 02:03:00,71.1,71.1,29.18,NE,49,0.0,0.0,100,0.00,,,0.00,VWS V13.01,2013-08-04 07:03:00,
2013-08-04 02:04:00,71.1,71.1,29.18,ENE,66,0.0,0.0,100,0.00,,,0.00,VWS V13.01,2013-08-04 07:04:00,
2013-08-04 02:05:00,71.1,71.1,29.18,NE,44,0.0,0.0,100,0.00,,,0.00,VWS V13.01,2013-08-04 07:05:00,
2013-08-04 02:08:00,70.9,70.9,29.18,East,87,0.0,0.0,100,0.00,,,0.00,VWS V13.01,2013-08-04 07:08:00,
2013-08-04 02:09:00,70.9,70.9,29.18,ENE,76,0.0,0.0,100,0.00,,,0.00,VWS V13.01,2013-08-04 07:09:00,
2013-08-04 02:10:00,70.9,70.9,29.18,ENE,67,0.0,0.0,100,0.00,,,0.00,VWS V13.01,2013-08-04 07:10:00,
2013-08-04 02:13:00,70.9,70.9,29.18,ENE,74,2.2,2.2,100,0.00,,,0.00,VWS V13.01,2013-08-04 07:13:00,
2013-08-04 02:14:00,70.9,70.9,29.18,ENE,78,0.0,0.0,100,0.00,,,0.00,VWS V13.01,2013-08-04 07:14:00,
2013-08-04 02:15:00,70.9,70.9,29.18,ENE,78,0.0,0.0,100,0.00,,,0.00,VWS V13.01,2013-08-04 07:15:00,
2013-08-04 02:19:00,70.9,70.9,29.18,NE,53,0.0,0.0,100,0.00,,,0.00,VWS V13.01,2013-08-04 07:19:00,
2013-08-04 02:20:00,70.9,70.9,29.18,ENE,63,0.0,0.0,100,0.00,,,0.00,VWS V13.01,2013-08-04 07:20:00,
2013-08-04 02:24:00,70.7,70.7,29.18,ENE,70,0.0,0.0,100,0.00,,,0.00,VWS V13.01,2013-08-04 07:24:00,
2013-08-04 02:25:00,70.7,70.7,29.18,ENE,65,0.0,0.0,100,0.00,,,0.00,VWS V13.01,2013-08-04 07:25:00,
2013-08-04 02:29:00,70.7,70.7,29.18,ENE,74,0.0,0.0,100,0.00,,,0.00,VWS V13.01,2013-08-04 07:29:00,
2013-08-04 02:30:00,70.7,70.7,29.18,ENE,74,0.0,0.0,100,0.00,,,0.00,VWS V13.01,2013-08-04 07:30:00,
2013-08-04 02:34:00,70.9,70.9,29.18,ENE,72,0.0,0.0,100,0.00,,,0.00,VWS V13.01,2013-08-04 07:34:00,
2013-08-04 02:35:00,70.9,70.9,29.18,ENE,77,0.0,0.0,100,0.00,,,0.00,VWS V13.01,2013-08-04 07:35:00,
2013-08-04 02:39:00,70.9,70.9,29.18,ENE,77,0.0,0.0,100,0.00,,,0.00,VWS V13.01,2013-08-04 07:39:00,
2013-08-04 02:40:00,70.9,70.9,29.18,East,84,0.0,0.0,100,0.00,,,0.00,VWS V13.01,2013-08-04 07:40:00,
2013-08-04 02:44:00,71.1,71.1,29.18,East,79,0.0,0.0,100,0.00,,,0.00,VWS V13.01,2013-08-04 07:44:00,
2013-08-04 02:45:00,71.1,71.1,29.18,East,79,0.0,0.0,100,0.00,,,0.00,VWS V13.01,2013-08-04 07:45:00,
2013-08-04 02:49:00,71.1,71.1,29.18,ENE,76,0.0,0.0,100,0.00,,,0.00,VWS V13.01,2013-08-04 07:49:00,
2013-08-04 02:50:00,71.1,71.1,29.18,ENE,76,0.0,0.0,100,0.00,,,0.00,VWS V13.01,2013-08-04 07:50:00,
2013-08-04 02:54:00,71.1,71.1,29.18,ENE,76,0.0,0.0,100,0.00,,,0.00,VWS V13.01,2013-08-04 07:54:00,
2013-08-04 02:55:00,71.1,71.1,29.18,ENE,74,0.0,0.0,100,0.00,,,0.00,VWS V13.01,2013-08-04 07:55:00,
2013-08-04 02:59:00,71.1,71.1,29.21,ENE,74,0.0,0.0,100,0.00,,,0.00,VWS V13.01,2013-08-04 07:59:00,
2013-08-04 03:00:00,71.1,71.1,29.21,ENE,74,0.0,0.0,100,0.00,,,0.00,VWS V13.01,2013-08-04 08:00:00,
2013-08-04 03:04:00,71.1,71.1,29.21,ENE,65,0.0,0.0,100,0.00,,,0.00,VWS V13.01,2013-08-04 08:04:00,
2013-08-04 03:05:00,71.2,71.2,29.21,ENE,66,0.0,0.0,100,0.00,,,0.00,VWS V13.01,2013-08-04 08:05:00,
2013-08-04 03:09:00,71.2,71.2,29.21,ENE,57,0.0,0.0,100,0.00,,,0.00,VWS V13.01,2013-08-04 08:09:00,
2013-08-04 03:10:00,71.2,71.2,29.21,ENE,57,0.0,0.0,100,0.00,,,0.00,VWS V13.01,2013-08-04 08:10:00,
2013-08-04 03:14:00,71.2,71.2,29.21,ENE,57,0.0,0.0,100,0.00,,,0.00,VWS V13.01,2013-08-04 08:14:00,
2013-08-04 03:15:00,71.2,71.2,29.21,ENE,57,0.0,0.0,100,0.00,,,0.00,VWS V13.01,2013-08-04 08:15:00,
2013-08-04 03:20:00,71.2,71.2,29.21,ENE,57,0.0,0.0,100,0.00,,,0.00,VWS V13.01,2013-08-04 08:20:00,
2013-08-04 03:25:00,71.2,71.2,29.21,ENE,57,0.0,0.0,100,0.00,,,0.00,VWS V13.01,2013-08-04 08:25:00,
2013-08-04 03:26:00,71.2,71.2,29.21,East,89,0.0,0.0,100,0.00,,,0.00,VWS V13.01,2013-08-04 08:26:00,
2013-08-04 03:30:00,71.2,71.2,29.21,East,79,0.0,0.0,100,0.00,,,0.00,VWS V13.01,2013-08-04 08:30:00,
2013-08-04 03:31:00,71.2,71.2,29.21,East,79,0.0,0.0,100,0.00,,,0.00,VWS V13.01,2013-08-04 08:31:00,
2013-08-04 03:35:00,71.2,71.2,29.21,NNE,32,0.0,0.0,100,0.00,,,0.00,VWS V13.01,2013-08-04 08:35:00,
2013-08-04 03:36:00,71.2,71.2,29.21,NNE,32,0.0,0.0,100,0.00,,,0.00,VWS V13.01,2013-08-04 08:36:00,
2013-08-04 03:37:00,71.1,71.1,29.21,ENE,62,0.0,0.0,100,0.00,,,0.00,VWS V13.01,2013-08-04 08:37:00,
2013-08-04 03:40:00,71.1,71.1,29.21,ENE,61,0.0,0.0,100,0.00,,,0.00,VWS V13.01,2013-08-04 08:40:00,
2013-08-04 03:41:00,71.1,71.1,29.21,ENE,63,0.0,0.0,100,0.00,,,0.00,VWS V13.01,2013-08-04 08:41:00,
2013-08-04 03:42:00,71.1,71.1,29.21,ENE,64,0.0,0.0,100,0.00,,,0.00,VWS V13.01,2013-08-04 08:42:00,
2013-08-04 03:45:00,71.1,71.1,29.21,NE,52,0.0,0.0,100,0.00,,,0.00,VWS V13.01,2013-08-04 08:45:00,
2013-08-04 03:46:00,71.1,71.1,29.21,NE,52,0.0,0.0,100,0.00,,,0.00,VWS V13.01,2013-08-04 08:46:00,
2013-08-04 03:47:00,71.1,71.1,29.21,NE,52,0.0,0.0,100,0.00,,,0.00,VWS V13.01,2013-08-04 08:47:00,
2013-08-04 03:50:00,71.1,71.1,29.21,ENE,70,0.0,0.0,100,0.00,,,0.00,VWS V13.01,2013-08-04 08:50:00,
2013-08-04 03:51:00,70.9,70.9,29.21,ENE,66,0.0,0.0,100,0.00,,,0.00,VWS V13.01,2013-08-04 08:51:00,
2013-08-04 03:52:00,70.9,70.9,29.21,ENE,72,0.0,0.0,100,0.00,,,0.00,VWS V13.01,2013-08-04 08:52:00,
2013-08-04 03:55:00,70.9,70.9,29.21,ENE,61,0.0,0.0,100,0.00,,,0.00,VWS V13.01,2013-08-04 08:55:00,
2013-08-04 03:56:00,70.9,70.9,29.21,ENE,60,0.0,0.0,100,0.00,,,0.00,VWS V13.01,2013-08-04 08:56:00,
2013-08-04 03:57:00,70.9,70.9,29.21,NE,46,0.0,0.0,100,0.00,,,0.00,VWS V13.01,2013-08-04 08:57:00,
2013-08-04 04:00:00,70.9,70.9,29.21,ENE,58,0.0,0.0,100,0.00,,,0.00,VWS V13.01,2013-08-04 09:00:00,
2013-08-04 04:01:00,70.9,70.9,29.21,ENE,63,0.0,0.0,100,0.00,,,0.00,VWS V13.01,2013-08-04 09:01:00,
2013-08-04 04:02:00,70.7,70.7,29.21,ENE,63,0.0,0.0,100,0.00,,,0.00,VWS V13.01,2013-08-04 09:02:00,
2013-08-04 04:05:00,70.7,70.7,29.21,ENE,63,0.0,0.0,100,0.00,,,0.00,VWS V13.01,2013-08-04 09:05:00,
2013-08-04 04:06:00,70.7,70.7,29.21,ENE,63,0.0,0.0,100,0.00,,,0.00,VWS V13.01,2013-08-04 09:06:00,
2013-08-04 04:07:00,70.5,70.5,29.21,ENE,63,0.0,0.0,100,0.00,,,0.00,VWS V13.01,2013-08-04 09:07:00,
2013-08-04 04:10:00,70.5,70.5,29.21,ENE,64,0.0,0.0,100,0.00,,,0.00,VWS V13.01,2013-08-04 09:10:00,
2013-08-04 04:11:00,70.5,70.5,29.21,ENE,71,0.0,0.0,100,0.00,,,0.00,VWS V13.01,2013-08-04 09:11:00,
2013-08-04 04:12:00,70.5,70.5,29.21,East,80,0.0,0.0,100,0.00,,,0.00,VWS V13.01,2013-08-04 09:12:00,
2013-08-04 04:15:00,70.3,70.3,29.21,NE,51,0.0,0.0,100,0.00,,,0.00,VWS V13.01,2013-08-04 09:15:00,
2013-08-04 04:16:00,70.3,70.3,29.21,NE,52,0.0,0.0,100,0.00,,,0.00,VWS V13.01,2013-08-04 09:16:00,
2013-08-04 04:17:00,70.3,70.3,29.21,NE,51,0.0,0.0,100,0.00,,,0.00,VWS V13.01,2013-08-04 09:17:00,
2013-08-04 04:20:00,70.3,70.3,29.21,ENE,78,3.6,3.6,100,0.00,,,0.00,VWS V13.01,2013-08-04 09:20:00,
2013-08-04 04:21:00,70.3,70.3,29.21,ENE,77,0.0,0.0,100,0.00,,,0.00,VWS V13.01,2013-08-04 09:21:00,
2013-08-04 04:22:00,70.3,70.3,29.21,NE,54,0.0,0.0,100,0.00,,,0.00,VWS V13.01,2013-08-04 09:22:00,
2013-08-04 04:25:00,70.3,70.3,29.21,NE,44,0.0,0.0,100,0.00,,,0.00,VWS V13.01,2013-08-04 09:25:00,
2013-08-04 04:26:00,70.3,70.3,29.21,NE,44,0.0,0.0,100,0.00,,,0.00,VWS V13.01,2013-08-04 09:26:00,
2013-08-04 04:28:00,70.3,70.3,29.21,ENE,65,2.2,2.2,100,0.00,,,0.00,VWS V13.01,2013-08-04 09:28:00,
2013-08-04 04:30:00,70.3,70.3,29.21,ENE,62,0.0,0.0,100,0.00,,,0.00,VWS V13.01,2013-08-04 09:30:00,
2013-08-04 04:31:00,70.3,70.3,29.21,NE,52,0.0,0.0,100,0.00,,,0.00,VWS V13.01,2013-08-04 09:31:00,
2013-08-04 04:33:00,70.3,70.3,29.21,ENE,65,0.0,0.0,100,0.00,,,0.00,VWS V13.01,2013-08-04 09:33:00,
2013-08-04 04:35:00,70.2,70.2,29.21,North,5,0.0,0.0,100,0.00,,,0.00,VWS V13.01,2013-08-04 09:35:00,
2013-08-04 04:36:00,70.2,70.2,29.21,NE,40,0.0,0.0,100,0.00,,,0.00,VWS V13.01,2013-08-04 09:36:00,
2013-08-04 04:37:00,70.2,70.2,29.21,NE,44,0.0,0.0,100,0.00,,,0.00,VWS V13.01,2013-08-04 09:37:00,
2013-08-04 04:38:00,70.2,70.2,29.21,NE,41,0.0,0.0,100,0.00,,,0.00,VWS V13.01,2013-08-04 09:38:00,
2013-08-04 04:40:00,70.2,70.2,29.18,ENE,71,0.0,0.0,100,0.00,,,0.00,VWS V13.01,2013-08-04 09:40:00,
2013-08-04 04:41:00,70.2,70.2,29.18,ENE,71,0.0,0.0,100,0.00,,,0.00,VWS V13.01,2013-08-04 09:41:00,
2013-08-04 04:42:00,70.2,70.2,29.18,NE,52,0.0,0.0,100,0.00,,,0.00,VWS V13.01,2013-08-04 09:42:00,
2013-08-04 04:43:00,70.2,70.2,29.18,ENE,57,0.0,0.0,100,0.00,,,0.00,VWS V13.01,2013-08-04 09:43:00,
2013-08-04 04:46:00,70.0,70.0,29.18,NE,48,0.0,0.0,100,0.00,,,0.00,VWS V13.01,2013-08-04 09:46:00,
2013-08-04 04:47:00,70.0,70.0,29.18,ENE,71,0.0,0.0,100,0.00,,,0.00,VWS V13.01,2013-08-04 09:47:00,
2013-08-04 04:48:00,70.0,70.0,29.18,NNE,25,0.0,0.0,100,0.00,,,0.00,VWS V13.01,2013-08-04 09:48:00,
2013-08-04 04:51:00,69.8,69.8,29.18,ENE,78,0.0,0.0,100,0.00,,,0.00,VWS V13.01,2013-08-04 09:51:00,
2013-08-04 04:52:00,69.8,69.8,29.18,ENE,72,0.0,0.0,100,0.00,,,0.00,VWS V13.01,2013-08-04 09:52:00,
2013-08-04 04:53:00,69.8,69.8,29.18,ENE,67,0.0,0.0,100,0.00,,,0.00,VWS V13.01,2013-08-04 09:53:00,
2013-08-04 04:56:00,69.6,69.6,29.18,East,87,3.1,3.1,100,0.00,,,0.00,VWS V13.01,2013-08-04 09:56:00,
2013-08-04 04:57:00,69.6,69.6,29.18,East,85,0.0,0.0,100,0.00,,,0.00,VWS V13.01,2013-08-04 09:57:00,
2013-08-04 04:58:00,69.6,69.6,29.18,ENE,78,3.1,3.1,100,0.00,,,0.00,VWS V13.01,2013-08-04 09:58:00,
2013-08-04 05:01:00,69.4,69.4,29.18,ENE,58,0.0,0.0,100,0.00,,,0.00,VWS V13.01,2013-08-04 10:01:00,
2013-08-04 05:02:00,69.4,69.4,29.18,East,81,0.0,0.0,100,0.00,,,0.00,VWS V13.01,2013-08-04 10:02:00,
2013-08-04 05:03:00,69.4,69.4,29.18,ENE,70,0.0,0.0,100,0.00,,,0.00,VWS V13.01,2013-08-04 10:03:00,
2013-08-04 05:06:00,69.3,69.3,29.18,ENE,62,2.2,2.2,100,0.00,,,0.00,VWS V13.01,2013-08-04 10:06:00,
2013-08-04 05:07:00,69.4,69.4,29.18,ENE,70,2.7,2.7,100,0.00,,,0.00,VWS V13.01,2013-08-04 10:07:00,
2013-08-04 05:08:00,69.3,69.3,29.18,East,82,0.0,0.0,100,0.00,,,0.00,VWS V13.01,2013-08-04 10:08:00,
2013-08-04 05:11:00,69.3,69.3,29.18,ENE,65,0.0,0.0,100,0.00,,,0.00,VWS V13.01,2013-08-04 10:11:00,
2013-08-04 05:12:00,69.4,69.4,29.18,East,89,0.0,0.0,100,0.00,,,0.00,VWS V13.01,2013-08-04 10:12:00,
2013-08-04 05:13:00,69.3,69.3,29.18,East,82,0.0,0.0,100,0.00,,,0.00,VWS V13.01,2013-08-04 10:13:00,
2013-08-04 05:16:00,69.3,69.3,29.18,ENE,78,0.0,0.0,100,0.00,,,0.00,VWS V13.01,2013-08-04 10:16:00,
2013-08-04 05:17:00,69.3,69.3,29.18,ENE,59,0.0,0.0,100,0.00,,,0.00,VWS V13.01,2013-08-04 10:17:00,
2013-08-04 05:18:00,69.3,69.3,29.18,ENE,58,0.0,0.0,100,0.00,,,0.00,VWS V13.01,2013-08-04 10:18:00,
2013-08-04 05:21:00,69.1,69.1,29.18,ENE,71,3.1,3.1,100,0.00,,,0.00,VWS V13.01,2013-08-04 10:21:00,
2013-08-04 05:22:00,69.1,69.1,29.18,ENE,69,0.0,0.0,100,0.00,,,0.00,VWS V13.01,2013-08-04 10:22:00,
2013-08-04 05:23:00,69.1,69.1,29.18,ENE,76,0.0,0.0,100,0.00,,,0.00,VWS V13.01,2013-08-04 10:23:00,
2013-08-04 05:26:00,69.1,69.1,29.18,ENE,70,0.0,0.0,100,0.00,,,0.00,VWS V13.01,2013-08-04 10:26:00,
2013-08-04 05:27:00,69.1,69.1,29.18,ENE,70,0.0,0.0,100,0.00,,,0.00,VWS V13.01,2013-08-04 10:27:00,
2013-08-04 05:29:00,69.1,69.1,29.18,ENE,70,0.0,0.0,100,0.00,,,0.00,VWS V13.01,2013-08-04 10:29:00,
2013-08-04 05:31:00,69.1,69.1,29.18,NE,47,0.0,0.0,100,0.00,,,0.00,VWS V13.01,2013-08-04 10:31:00,
2013-08-04 05:32:00,69.1,69.1,29.18,ENE,57,0.0,0.0,100,0.00,,,0.00,VWS V13.01,2013-08-04 10:32:00,
2013-08-04 05:33:00,69.1,69.1,29.18,ENE,57,0.0,0.0,100,0.00,,,0.00,VWS V13.01,2013-08-04 10:33:00,
2013-08-04 05:34:00,69.1,69.1,29.18,ENE,69,0.0,0.0,100,0.00,,,0.00,VWS V13.01,2013-08-04 10:34:00,
2013-08-04 05:37:00,69.1,69.1,29.18,ENE,71,0.0,0.0,100,0.00,,,0.00,VWS V13.01,2013-08-04 10:37:00,
2013-08-04 05:38:00,69.1,69.1,29.18,ENE,73,0.0,0.0,100,0.00,,,0.00,VWS V13.01,2013-08-04 10:38:00,
2013-08-04 05:39:00,68.9,68.9,29.18,ENE,72,0.0,0.0,100,0.00,,,0.00,VWS V13.01,2013-08-04 10:39:00,
2013-08-04 05:42:00,68.9,68.9,29.18,ENE,58,0.0,0.0,100,0.00,,,0.00,VWS V13.01,2013-08-04 10:42:00,
2013-08-04 05:43:00,68.9,68.9,29.18,ENE,67,0.0,0.0,100,0.00,,,0.00,VWS V13.01,2013-08-04 10:43:00,
2013-08-04 05:45:00,68.9,68.9,29.18,ENE,58,0.0,0.0,100,0.00,,,0.00,VWS V13.01,2013-08-04 10:45:00,
2013-08-04 05:47:00,68.9,68.9,29.18,NE,45,0.0,0.0,100,0.00,,,0.00,VWS V13.01,2013-08-04 10:47:00,
2013-08-04 05:48:00,68.9,68.9,29.18,ENE,72,0.0,0.0,100,0.00,,,0.00,VWS V13.01,2013-08-04 10:48:00,
2013-08-04 05:50:00,68.9,68.9,29.18,ENE,59,0.0,0.0,100,0.00,,,0.00,VWS V13.01,2013-08-04 10:50:00,
2013-08-04 05:52:00,68.7,68.7,29.18,ENE,62,0.0,0.0,100,0.00,,,0.00,VWS V13.01,2013-08-04 10:52:00,
2013-08-04 05:53:00,68.9,68.9,29.18,ENE,62,0.0,0.0,100,0.00,,,0.00,VWS V13.01,2013-08-04 10:53:00,
2013-08-04 05:55:00,68.7,68.7,29.18,ENE,77,0.0,0.0,100,0.00,,,0.00,VWS V13.01,2013-08-04 10:55:00,
2013-08-04 05:57:00,68.7,68.7,29.18,NE,50,0.0,0.0,100,0.00,,,0.00,VWS V13.01,2013-08-04 10:57:00,
2013-08-04 05:58:00,68.7,68.7,29.18,NE,50,0.0,0.0,100,0.00,,,0.00,VWS V13.01,2013-08-04 10:58:00,
2013-08-04 06:00:00,68.7,68.7,29.18,ENE,71,2.2,2.2,100,0.00,,,0.00,VWS V13.01,2013-08-04 11:00:00,
2013-08-04 06:02:00,68.7,68.7,29.18,ENE,74,2.2,2.2,100,0.00,,,0.00,VWS V13.01,2013-08-04 11:02:00,
2013-08-04 06:03:00,68.7,68.7,29.18,ENE,74,0.0,0.0,100,0.00,,,0.00,VWS V13.01,2013-08-04 11:03:00,
2013-08-04 06:05:00,68.5,68.5,29.18,ENE,77,0.0,0.0,100,0.00,,,0.00,VWS V13.01,2013-08-04 11:05:00,
2013-08-04 06:07:00,68.5,68.5,29.18,East,81,3.6,3.6,100,0.00,,,0.00,VWS V13.01,2013-08-04 11:07:00,
2013-08-04 06:08:00,68.5,68.5,29.18,East,79,0.0,0.0,100,0.00,,,0.00,VWS V13.01,2013-08-04 11:08:00,
2013-08-04 06:10:00,68.7,68.7,29.18,ENE,78,0.0,0.0,100,0.00,,,0.00,VWS V13.01,2013-08-04 11:10:00,
2013-08-04 06:12:00,68.7,68.7,29.18,ENE,72,3.1,3.1,100,0.00,,,0.00,VWS V13.01,2013-08-04 11:12:00,
2013-08-04 06:13:00,68.7,68.7,29.18,East,88,0.0,0.0,100,0.00,,,0.00,VWS V13.01,2013-08-04 11:13:00,
2013-08-04 06:15:00,68.7,68.7,29.18,ENE,77,3.1,3.1,100,0.00,,,0.00,VWS V13.01,2013-08-04 11:15:00,
2013-08-04 06:17:00,68.9,68.9,29.18,ESE,107,0.0,0.0,100,0.00,,,0.00,VWS V13.01,2013-08-04 11:17:00,
2013-08-04 06:18:00,68.9,68.9,29.18,East,83,3.6,3.6,100,0.00,,,0.00,VWS V13.01,2013-08-04 11:18:00,
2013-08-04 06:20:00,68.7,68.7,29.18,ENE,71,0.0,0.0,100,0.00,,,0.00,VWS V13.01,2013-08-04 11:20:00,
2013-08-04 06:22:00,68.9,68.9,29.18,ENE,75,3.1,3.1,100,0.00,,,0.00,VWS V13.01,2013-08-04 11:22:00,
2013-08-04 06:23:00,68.9,68.9,29.18,ENE,66,0.0,0.0,100,0.00,,,0.00,VWS V13.01,2013-08-04 11:23:00,
2013-08-04 06:25:00,68.9,68.9,29.18,ENE,76,0.0,0.0,100,0.00,,,0.00,VWS V13.01,2013-08-04 11:25:00,
2013-08-04 06:27:00,68.9,68.9,29.18,East,94,2.2,2.2,100,0.00,,,0.00,VWS V13.01,2013-08-04 11:27:00,
2013-08-04 06:28:00,68.9,68.9,29.18,East,86,3.1,3.1,100,0.00,,,0.00,VWS V13.01,2013-08-04 11:28:00,
2013-08-04 06:30:00,68.9,68.9,29.18,ENE,77,0.0,0.0,100,0.00,,,0.00,VWS V13.01,2013-08-04 11:30:00,
2013-08-04 06:32:00,68.9,68.9,29.18,East,81,0.0,0.0,100,0.00,,,0.00,VWS V13.01,2013-08-04 11:32:00,
2013-08-04 06:33:00,68.9,68.9,29.18,East,88,4.9,4.9,100,0.00,,,0.00,VWS V13.01,2013-08-04 11:33:00,
2013-08-04 06:35:00,69.1,69.1,29.18,ENE,75,0.0,0.0,100,0.00,,,0.00,VWS V13.01,2013-08-04 11:35:00,
2013-08-04 06:37:00,69.1,69.1,29.18,NE,54,3.1,3.1,100,0.00,,,0.00,VWS V13.01,2013-08-04 11:37:00,
2013-08-04 06:38:00,69.1,69.1,29.18,East,95,0.0,0.0,100,0.00,,,0.00,VWS V13.01,2013-08-04 11:38:00,
2013-08-04 06:40:00,69.3,69.3,29.21,NNW,338,0.0,0.0,100,0.00,,,0.00,VWS V13.01,2013-08-04 11:40:00,
2013-08-04 06:42:00,69.3,68.4,29.21,ENE,78,0.0,0.0,97,0.00,,,0.00,VWS V13.01,2013-08-04 11:42:00,
2013-08-04 06:43:00,69.3,68.4,29.21,NE,56,0.0,0.0,97,0.00,,,0.00,VWS V13.01,2013-08-04 11:43:00,
2013-08-04 06:45:00,69.4,68.6,29.21,East,83,2.2,2.2,97,0.00,,,0.00,VWS V13.01,2013-08-04 11:45:00,
2013-08-04 06:47:00,69.4,68.6,29.21,NE,35,0.0,0.0,97,0.00,,,0.00,VWS V13.01,2013-08-04 11:47:00,
2013-08-04 06:48:00,69.4,68.6,29.21,East,79,3.6,3.6,97,0.00,,,0.00,VWS V13.01,2013-08-04 11:48:00,
2013-08-04 06:50:00,69.4,68.6,29.21,ENE,77,0.0,0.0,97,0.00,,,0.00,VWS V13.01,2013-08-04 11:50:00,
2013-08-04 06:53:00,69.4,68.6,29.21,East,94,0.0,0.0,97,0.00,,,0.00,VWS V13.01,2013-08-04 11:53:00,
2013-08-04 06:54:00,69.6,68.7,29.21,ENE,75,0.0,0.0,97,0.00,,,0.00,VWS V13.01,2013-08-04 11:54:00,
2013-08-04 06:55:00,69.6,68.7,29.21,ENE,75,0.0,0.0,97,0.00,,,0.00,VWS V13.01,2013-08-04 11:55:00,
2013-08-04 06:58:00,69.6,68.7,29.21,ENE,58,0.0,0.0,97,0.00,,,0.00,VWS V13.01,2013-08-04 11:58:00,
2013-08-04 06:59:00,69.6,68.7,29.21,East,83,0.0,0.0,97,0.00,,,0.00,VWS V13.01,2013-08-04 11:59:00,
2013-08-04 07:00:00,69.6,68.7,29.21,ENE,65,0.0,0.0,97,0.00,,,0.00,VWS V13.01,2013-08-04 12:00:00,
2013-08-04 07:03:00,69.6,68.7,29.21,NE,39,0.0,0.0,97,0.00,,,0.00,VWS V13.01,2013-08-04 12:03:00,
2013-08-04 07:04:00,69.6,68.7,29.21,NE,49,0.0,0.0,97,0.00,,,0.00,VWS V13.01,2013-08-04 12:04:00,
2013-08-04 07:06:00,69.6,68.7,29.21,ENE,77,0.0,0.0,97,0.00,,,0.00,VWS V13.01,2013-08-04 12:06:00,
2013-08-04 07:08:00,69.6,62.8,29.21,ENE,73,0.0,0.0,79,0.00,,,0.00,VWS V13.01,2013-08-04 12:08:00,
2013-08-04 07:09:00,69.6,68.7,29.21,ENE,73,0.0,0.0,97,0.00,,,0.00,VWS V13.01,2013-08-04 12:09:00,
2013-08-04 07:11:00,69.6,62.8,29.21,ENE,76,0.0,0.0,79,0.00,,,0.00,VWS V13.01,2013-08-04 12:11:00,
2013-08-04 07:13:00,69.6,62.8,29.21,ENE,72,0.0,0.0,79,0.00,,,0.00,VWS V13.01,2013-08-04 12:13:00,
2013-08-04 07:14:00,69.6,62.8,29.21,ENE,72,0.0,0.0,79,0.00,,,0.00,VWS V13.01,2013-08-04 12:14:00,
2013-08-04 07:16:00,69.6,62.8,29.21,ENE,72,0.0,0.0,79,0.00,,,0.00,VWS V13.01,2013-08-04 12:16:00,
2013-08-04 07:18:00,69.8,63.0,29.21,North,4,0.0,0.0,79,0.00,,,0.00,VWS V13.01,2013-08-04 12:18:00,
2013-08-04 07:19:00,69.8,63.0,29.21,ENE,75,0.0,0.0,79,0.00,,,0.00,VWS V13.01,2013-08-04 12:19:00,
2013-08-04 07:21:00,69.8,63.0,29.21,ENE,75,0.0,0.0,79,0.00,,,0.00,VWS V13.01,2013-08-04 12:21:00,
2013-08-04 07:23:00,69.8,63.0,29.21,East,83,0.0,0.0,79,0.00,,,0.00,VWS V13.01,2013-08-04 12:23:00,
2013-08-04 07:24:00,69.8,63.0,29.21,ENE,76,0.0,0.0,79,0.00,,,0.00,VWS V13.01,2013-08-04 12:24:00,
2013-08-04 07:27:00,69.8,63.0,29.21,ENE,76,0.0,0.0,79,0.00,,,0.00,VWS V13.01,2013-08-04 12:27:00,
2013-08-04 07:28:00,69.8,63.0,29.21,ENE,78,0.0,0.0,79,0.00,,,0.00,VWS V13.01,2013-08-04 12:28:00,
2013-08-04 07:29:00,69.8,63.0,29.21,East,81,0.0,0.0,79,0.00,,,0.00,VWS V13.01,2013-08-04 12:29:00,
2013-08-04 07:32:00,69.8,63.0,29.21,ENE,67,0.0,0.0,79,0.00,,,0.00,VWS V13.01,2013-08-04 12:32:00,
2013-08-04 07:33:00,69.8,63.0,29.21,ENE,78,0.0,0.0,79,0.00,,,0.00,VWS V13.01,2013-08-04 12:33:00,
2013-08-04 07:34:00,69.8,63.0,29.21,ENE,67,3.1,3.1,79,0.00,,,0.00,VWS V13.01,2013-08-04 12:34:00,
2013-08-04 07:37:00,69.8,63.0,29.21,East,84,0.0,0.0,79,0.00,,,0.00,VWS V13.01,2013-08-04 12:37:00,
2013-08-04 07:38:00,70.0,63.2,29.21,East,79,0.0,0.0,79,0.00,,,0.00,VWS V13.01,2013-08-04 12:38:00,
2013-08-04 07:39:00,70.0,63.2,29.21,ENE,78,0.0,0.0,79,0.00,,,0.00,VWS V13.01,2013-08-04 12:39:00,
2013-08-04 07:42:00,70.0,63.2,29.21,ENE,67,0.0,0.0,79,0.00,,,0.00,VWS V13.01,2013-08-04 12:42:00,
2013-08-04 07:43:00,70.0,63.2,29.21,ENE,60,0.0,0.0,79,0.00,,,0.00,VWS V13.01,2013-08-04 12:43:00,
2013-08-04 07:44:00,70.0,63.2,29.21,ENE,75,0.0,0.0,79,0.00,,,0.00,VWS V13.01,2013-08-04 12:44:00,
2013-08-04 07:47:00,69.6,62.8,29.21,East,82,0.0,0.0,79,0.00,,,0.00,VWS V13.01,2013-08-04 12:47:00,
2013-08-04 07:48:00,69.8,63.0,29.21,ENE,72,0.0,0.0,79,0.00,,,0.00,VWS V13.01,2013-08-04 12:48:00,
2013-08-04 07:49:00,69.8,63.0,29.21,ENE,72,0.0,0.0,79,0.00,,,0.00,VWS V13.01,2013-08-04 12:49:00,
2013-08-04 07:52:00,70.0,63.2,29.21,ENE,76,0.0,0.0,79,0.00,,,0.00,VWS V13.01,2013-08-04 12:52:00,
2013-08-04 07:53:00,70.0,63.2,29.21,ENE,76,0.0,0.0,79,0.00,,,0.00,VWS V13.01,2013-08-04 12:53:00,
2013-08-04 07:54:00,70.0,63.2,29.21,ENE,76,0.0,0.0,79,0.00,,,0.00,VWS V13.01,2013-08-04 12:54:00,
2013-08-04 07:57:00,70.0,63.2,29.21,ENE,78,0.0,0.0,79,0.00,,,0.00,VWS V13.01,2013-08-04 12:57:00,
2013-08-04 07:58:00,70.0,63.2,29.21,East,80,0.0,0.0,79,0.00,,,0.00,VWS V13.01,2013-08-04 12:58:00,
2013-08-04 07:59:00,70.0,63.2,29.21,East,81,3.1,3.1,79,0.00,,,0.00,VWS V13.01,2013-08-04 12:59:00,
2013-08-04 08:02:00,70.0,63.2,29.21,East,81,0.0,0.0,79,0.00,,,0.00,VWS V13.01,2013-08-04 13:02:00,
2013-08-04 08:03:00,70.0,63.2,29.21,ENE,75,0.0,0.0,79,0.00,,,0.00,VWS V13.01,2013-08-04 13:03:00,
2013-08-04 08:04:00,70.0,63.2,29.21,ENE,75,0.0,0.0,79,0.00,,,0.00,VWS V13.01,2013-08-04 13:04:00,
2013-08-04 08:05:00,70.0,63.2,29.21,ENE,76,3.6,3.6,79,0.00,,,0.00,VWS V13.01,2013-08-04 13:05:00,
2013-08-04 08:07:00,70.2,63.3,29.21,ENE,65,0.0,0.0,79,0.00,,,0.00,VWS V13.01,2013-08-04 13:07:00,
2013-08-04 08:08:00,70.2,63.3,29.21,NE,56,0.0,0.0,79,0.00,,,0.00,VWS V13.01,2013-08-04 13:08:00,
2013-08-04 08:09:00,70.2,63.3,29.21,NE,56,0.0,0.0,79,0.00,,,0.00,VWS V13.01,2013-08-04 13:09:00,
2013-08-04 08:10:00,70.2,63.3,29.21,NE,56,0.0,0.0,79,0.00,,,0.00,VWS V13.01,2013-08-04 13:10:00,
2013-08-04 08:12:00,70.2,63.3,29.21,ENE,57,0.0,0.0,79,0.00,,,0.00,VWS V13.01,2013-08-04 13:12:00,
2013-08-04 08:13:00,70.2,56.1,29.21,ENE,75,4.0,4.0,61,0.00,,,0.00,VWS V13.01,2013-08-04 13:13:00,
2013-08-04 08:14:00,70.2,63.3,29.21,ENE,73,3.1,3.1,79,0.00,,,0.00,VWS V13.01,2013-08-04 13:14:00,
2013-08-04 08:15:00,70.2,63.3,29.21,East,81,0.0,0.0,79,0.00,,,0.00,VWS V13.01,2013-08-04 13:15:00,
2013-08-04 08:17:00,70.2,56.1,29.21,ENE,68,0.0,0.0,61,0.00,,,0.00,VWS V13.01,2013-08-04 13:17:00,
2013-08-04 08:18:00,70.2,56.1,29.21,ENE,72,2.7,2.7,61,0.00,,,0.00,VWS V13.01,2013-08-04 13:18:00,
2013-08-04 08:19:00,70.2,56.1,29.21,ENE,65,3.1,3.1,61,0.00,,,0.00,VWS V13.01,2013-08-04 13:19:00,
2013-08-04 08:20:00,70.2,56.1,29.21,ENE,59,2.7,2.7,61,0.00,,,0.00,VWS V13.01,2013-08-04 13:20:00,
2013-08-04 08:22:00,70.2,56.1,29.21,ENE,78,3.6,3.6,61,0.00,,,0.00,VWS V13.01,2013-08-04 13:22:00,
2013-08-04 08:23:00,70.2,56.1,29.21,ENE,65,2.7,2.7,61,0.00,,,0.00,VWS V13.01,2013-08-04 13:23:00,
2013-08-04 08:24:00,70.2,56.1,29.21,East,85,3.6,3.6,61,0.00,,,0.00,VWS V13.01,2013-08-04 13:24:00,
2013-08-04 08:25:00,70.2,56.1,29.21,East,93,3.6,3.6,61,0.00,,,0.00,VWS V13.01,2013-08-04 13:25:00,
2013-08-04 08:27:00,70.2,56.1,29.21,ENE,71,0.0,0.0,61,0.00,,,0.00,VWS V13.01,2013-08-04 13:27:00,
2013-08-04 08:28:00,70.2,56.1,29.21,ENE,78,0.0,0.0,61,0.00,,,0.00,VWS V13.01,2013-08-04 13:28:00,
2013-08-04 08:29:00,70.2,56.1,29.21,ENE,73,0.0,0.0,61,0.00,,,0.00,VWS V13.01,2013-08-04 13:29:00,
2013-08-04 08:30:00,70.2,56.1,29.21,ENE,68,0.0,0.0,61,0.00,,,0.00,VWS V13.01,2013-08-04 13:30:00,
2013-08-04 08:32:00,70.2,56.1,29.21,East,82,3.1,3.1,61,0.00,,,0.00,VWS V13.01,2013-08-04 13:32:00,
2013-08-04 08:33:00,70.2,56.1,29.21,East,93,3.6,3.6,61,0.00,,,0.00,VWS V13.01,2013-08-04 13:33:00,
2013-08-04 08:34:00,70.2,56.1,29.21,East,82,3.6,3.6,61,0.00,,,0.00,VWS V13.01,2013-08-04 13:34:00,
2013-08-04 08:35:00,70.2,56.1,29.21,ENE,78,2.7,2.7,61,0.00,,,0.00,VWS V13.01,2013-08-04 13:35:00,
2013-08-04 08:37:00,70.0,55.9,29.21,SE,126,0.0,0.0,61,0.00,,,0.00,VWS V13.01,2013-08-04 13:37:00,
2013-08-04 08:39:00,70.0,55.9,29.21,East,86,5.8,5.8,61,0.00,,,0.00,VWS V13.01,2013-08-04 13:39:00,
2013-08-04 08:40:00,70.0,55.9,29.21,ENE,67,3.6,3.6,61,0.00,,,0.00,VWS V13.01,2013-08-04 13:40:00,
2013-08-04 08:42:00,70.0,55.9,29.21,East,83,2.7,2.7,61,0.00,,,0.00,VWS V13.01,2013-08-04 13:42:00,
2013-08-04 08:44:00,70.0,55.9,29.21,ENE,60,3.1,3.1,61,0.00,,,0.00,VWS V13.01,2013-08-04 13:44:00,
2013-08-04 08:45:00,70.0,55.9,29.21,ENE,63,3.6,3.6,61,0.00,,,0.00,VWS V13.01,2013-08-04 13:45:00,
2013-08-04 08:47:00,70.0,55.9,29.21,ENE,59,2.2,2.2,61,0.00,,,0.00,VWS V13.01,2013-08-04 13:47:00,
2013-08-04 08:49:00,70.0,55.9,29.21,ENE,74,0.0,0.0,61,0.00,,,0.00,VWS V13.01,2013-08-04 13:49:00,
2013-08-04 08:50:00,70.0,55.9,29.21,ENE,77,0.0,0.0,61,0.00,,,0.00,VWS V13.01,2013-08-04 13:50:00,
2013-08-04 08:52:00,70.0,55.9,29.21,East,89,2.7,2.7,61,0.00,,,0.00,VWS V13.01,2013-08-04 13:52:00,
2013-08-04 08:54:00,69.8,55.8,29.21,East,81,2.7,2.7,61,0.00,,,0.00,VWS V13.01,2013-08-04 13:54:00,
2013-08-04 08:55:00,70.0,55.9,29.21,East,86,3.1,3.1,61,0.00,,,0.00,VWS V13.01,2013-08-04 13:55:00,
2013-08-04 08:57:00,70.0,55.9,29.21,ENE,61,3.1,3.1,61,0.00,,,0.00,VWS V13.01,2013-08-04 13:57:00,
2013-08-04 08:59:00,70.0,55.9,29.21,ENE,73,3.6,3.6,61,0.00,,,0.00,VWS V13.01,2013-08-04 13:59:00,
2013-08-04 09:00:00,70.0,55.9,29.21,East,80,2.2,2.2,61,0.00,,,0.00,VWS V13.01,2013-08-04 14:00:00,
2013-08-04 09:02:00,70.0,55.9,29.21,ENE,74,0.0,0.0,61,0.00,,,0.00,VWS V13.01,2013-08-04 14:02:00,
2013-08-04 09:04:00,70.0,55.9,29.21,East,92,0.0,0.0,61,0.00,,,0.00,VWS V13.01,2013-08-04 14:04:00,
2013-08-04 09:05:00,70.0,55.9,29.21,ENE,74,0.0,0.0,61,0.00,,,0.00,VWS V13.01,2013-08-04 14:05:00,
2013-08-04 09:07:00,70.0,55.9,29.21,East,82,0.0,0.0,61,0.00,,,0.00,VWS V13.01,2013-08-04 14:07:00,
2013-08-04 09:09:00,70.0,55.9,29.21,East,82,0.0,0.0,61,0.00,,,0.00,VWS V13.01,2013-08-04 14:09:00,
2013-08-04 09:10:00,70.0,55.9,29.23,East,82,0.0,0.0,61,0.00,,,0.00,VWS V13.01,2013-08-04 14:10:00,
2013-08-04 09:12:00,70.0,55.9,29.23,ENE,76,0.0,0.0,61,0.00,,,0.00,VWS V13.01,2013-08-04 14:12:00,
2013-08-04 09:14:00,70.0,55.9,29.23,ENE,76,0.0,0.0,61,0.00,,,0.00,VWS V13.01,2013-08-04 14:14:00,
2013-08-04 09:15:00,70.0,55.9,29.23,ENE,76,0.0,0.0,61,0.00,,,0.00,VWS V13.01,2013-08-04 14:15:00,
2013-08-04 09:16:00,70.0,55.9,29.23,ENE,77,0.0,0.0,61,0.00,,,0.00,VWS V13.01,2013-08-04 14:16:00,
2013-08-04 09:17:00,70.0,55.9,29.23,ENE,77,0.0,0.0,61,0.00,,,0.00,VWS V13.01,2013-08-04 14:17:00,
2013-08-04 09:19:00,70.2,56.1,29.23,ENE,77,0.0,0.0,61,0.00,,,0.00,VWS V13.01,2013-08-04 14:19:00,
2013-08-04 09:20:00,70.2,56.1,29.23,ENE,77,0.0,0.0,61,0.00,,,0.00,VWS V13.01,2013-08-04 14:20:00,
2013-08-04 09:21:00,70.2,56.1,29.23,ENE,77,0.0,0.0,61,0.00,,,0.00,VWS V13.01,2013-08-04 14:21:00,
2013-08-04 09:22:00,70.2,56.1,29.23,South,188,0.0,0.0,61,0.00,,,0.00,VWS V13.01,2013-08-04 14:22:00,
2013-08-04 09:24:00,70.2,63.3,29.23,South,177,0.0,0.0,79,0.00,,,0.00,VWS V13.01,2013-08-04 14:24:00,
2013-08-04 09:25:00,70.3,63.5,29.23,SSW,196,0.0,0.0,79,0.00,,,0.00,VWS V13.01,2013-08-04 14:25:00,
2013-08-04 09:26:00,70.3,63.5,29.23,SSW,196,0.0,0.0,79,0.00,,,0.00,VWS V13.01,2013-08-04 14:26:00,
2013-08-04 09:28:00,70.3,63.5,29.23,SSW,196,0.0,0.0,79,0.00,,,0.00,VWS V13.01,2013-08-04 14:28:00,
2013-08-04 09:29:00,70.5,63.7,29.23,South,186,0.0,0.0,79,0.00,,,0.00,VWS V13.01,2013-08-04 14:29:00,
2013-08-04 09:30:00,70.5,63.7,29.23,SSE,153,0.0,0.0,79,0.00,,,0.00,VWS V13.01,2013-08-04 14:30:00,
2013-08-04 09:31:00,70.5,63.7,29.23,SSE,153,0.0,0.0,79,0.00,,,0.00,VWS V13.01,2013-08-04 14:31:00,
2013-08-04 09:33:00,70.5,56.4,29.23,South,185,0.0,0.0,61,0.00,,,0.00,VWS V13.01,2013-08-04 14:33:00,
2013-08-04 09:34:00,70.5,56.4,29.23,SSE,147,0.0,0.0,61,0.00,,,0.00,VWS V13.01,2013-08-04 14:34:00,
2013-08-04 09:35:00,70.5,56.4,29.23,SSE,147,0.0,0.0,61,0.00,,,0.00,VWS V13.01,2013-08-04 14:35:00,
2013-08-04 09:37:00,70.5,56.4,29.23,South,182,0.0,0.0,61,0.00,,,0.00,VWS V13.01,2013-08-04 14:37:00,
2013-08-04 09:38:00,70.5,56.4,29.23,South,177,0.0,0.0,61,0.00,,,0.00,VWS V13.01,2013-08-04 14:38:00,
2013-08-04 09:39:00,70.5,56.4,29.23,South,185,0.0,0.0,61,0.00,,,0.00,VWS V13.01,2013-08-04 14:39:00,
2013-08-04 09:40:00,70.5,56.4,29.23,South,185,0.0,0.0,61,0.00,,,0.00,VWS V13.01,2013-08-04 14:40:00,
2013-08-04 09:41:00,70.5,56.4,29.23,South,181,0.0,0.0,61,0.00,,,0.00,VWS V13.01,2013-08-04 14:41:00,
2013-08-04 09:42:00,70.5,56.4,29.23,South,181,0.0,0.0,61,0.00,,,0.00,VWS V13.01,2013-08-04 14:42:00,
2013-08-04 09:43:00,70.5,56.4,29.23,South,174,0.0,0.0,61,0.00,,,0.00,VWS V13.01,2013-08-04 14:43:00,
2013-08-04 09:44:00,70.5,56.4,29.23,South,174,0.0,0.0,61,0.00,,,0.00,VWS V13.01,2013-08-04 14:44:00,
2013-08-04 09:45:00,70.5,56.4,29.23,South,174,0.0,0.0,61,0.00,,,0.00,VWS V13.01,2013-08-04 14:45:00,
2013-08-04 09:46:00,70.7,56.6,29.23,South,176,0.0,0.0,61,0.00,,,0.00,VWS V13.01,2013-08-04 14:46:00,
2013-08-04 09:47:00,70.7,56.6,29.23,SSE,152,0.0,0.0,61,0.00,,,0.00,VWS V13.01,2013-08-04 14:47:00,
2013-08-04 09:48:00,70.7,56.6,29.23,NE,43,0.0,0.0,61,0.00,,,0.00,VWS V13.01,2013-08-04 14:48:00,
2013-08-04 09:49:00,70.7,56.6,29.23,ENE,64,0.0,0.0,61,0.00,,,0.00,VWS V13.01,2013-08-04 14:49:00,
2013-08-04 09:50:00,70.7,56.6,29.23,East,91,0.0,0.0,61,0.00,,,0.00,VWS V13.01,2013-08-04 14:50:00,
2013-08-04 09:51:00,70.9,64.1,29.23,South,185,0.0,0.0,79,0.00,,,0.00,VWS V13.01,2013-08-04 14:51:00,
2013-08-04 09:52:00,70.9,64.1,29.23,NE,51,0.0,0.0,79,0.00,,,0.00,VWS V13.01,2013-08-04 14:52:00,
2013-08-04 09:53:00,70.9,56.8,29.23,ENE,63,0.0,0.0,61,0.00,,,0.00,VWS V13.01,2013-08-04 14:53:00,
2013-08-04 09:54:00,70.9,56.8,29.23,ENE,63,0.0,0.0,61,0.00,,,0.00,VWS V13.01,2013-08-04 14:54:00,
2013-08-04 09:55:00,70.9,56.8,29.21,ENE,63,0.0,0.0,61,0.00,,,0.00,VWS V13.01,2013-08-04 14:55:00,
2013-08-04 09:56:00,70.9,56.8,29.21,ENE,75,0.0,0.0,61,0.00,,,0.00,VWS V13.01,2013-08-04 14:56:00,
2013-08-04 09:58:00,70.9,56.8,29.21,ENE,76,0.0,0.0,61,0.00,,,0.00,VWS V13.01,2013-08-04 14:58:00,
2013-08-04 09:59:00,70.9,56.8,29.21,ENE,76,0.0,0.0,61,0.00,,,0.00,VWS V13.01,2013-08-04 14:59:00,
2013-08-04 10:00:00,70.9,56.8,29.21,ENE,76,0.0,0.0,61,0.00,,,0.00,VWS V13.01,2013-08-04 15:00:00,
2013-08-04 10:01:00,70.9,56.8,29.21,ENE,76,0.0,0.0,61,0.00,,,0.00,VWS V13.01,2013-08-04 15:01:00,
2013-08-04 10:03:00,70.9,56.8,29.21,ENE,76,0.0,0.0,61,0.00,,,0.00,VWS V13.01,2013-08-04 15:03:00,
2013-08-04 10:04:00,70.7,63.9,29.21,ENE,76,0.0,0.0,79,0.00,,,0.00,VWS V13.01,2013-08-04 15:04:00,
2013-08-04 10:05:00,70.7,63.9,29.21,ENE,76,0.0,0.0,79,0.00,,,0.00,VWS V13.01,2013-08-04 15:05:00,
2013-08-04 10:06:00,70.7,56.6,29.21,ENE,76,0.0,0.0,61,0.00,,,0.00,VWS V13.01,2013-08-04 15:06:00,
2013-08-04 10:08:00,70.7,56.6,29.21,ENE,76,0.0,0.0,61,0.00,,,0.00,VWS V13.01,2013-08-04 15:08:00,
2013-08-04 10:09:00,70.5,63.7,29.23,ENE,76,0.0,0.0,79,0.00,,,0.00,VWS V13.01,2013-08-04 15:09:00,
2013-08-04 10:10:00,70.5,63.7,29.23,ENE,76,0.0,0.0,79,0.00,,,0.00,VWS V13.01,2013-08-04 15:10:00,
2013-08-04 10:11:00,70.5,63.7,29.23,ENE,76,0.0,0.0,79,0.00,,,0.00,VWS V13.01,2013-08-04 15:11:00,
2013-08-04 10:13:00,70.5,63.7,29.23,ENE,76,0.0,0.0,79,0.00,,,0.00,VWS V13.01,2013-08-04 15:13:00,
2013-08-04 10:14:00,70.5,63.7,29.23,ENE,76,0.0,0.0,79,0.00,,,0.00,VWS V13.01,2013-08-04 15:14:00,
2013-08-04 10:15:00,70.5,63.7,29.23,ENE,76,0.0,0.0,79,0.00,,,0.00,VWS V13.01,2013-08-04 15:15:00,
2013-08-04 10:16:00,70.5,63.7,29.23,ENE,76,0.0,0.0,79,0.00,,,0.00,VWS V13.01,2013-08-04 15:16:00,
2013-08-04 10:18:00,70.5,63.7,29.23,ENE,76,0.0,0.0,79,0.00,,,0.00,VWS V13.01,2013-08-04 15:18:00,
2013-08-04 10:19:00,70.5,63.7,29.23,ENE,76,0.0,0.0,79,0.00,,,0.00,VWS V13.01,2013-08-04 15:19:00,
2013-08-04 10:20:00,70.5,63.7,29.23,ENE,76,0.0,0.0,79,0.00,,,0.00,VWS V13.01,2013-08-04 15:20:00,
2013-08-04 10:21:00,70.5,63.7,29.23,ENE,76,0.0,0.0,79,0.00,,,0.00,VWS V13.01,2013-08-04 15:21:00,
2013-08-04 10:23:00,70.5,63.7,29.23,ENE,76,0.0,0.0,79,0.00,,,0.00,VWS V13.01,2013-08-04 15:23:00,
2013-08-04 10:25:00,70.5,63.7,29.23,ENE,76,0.0,0.0,79,0.00,,,0.00,VWS V13.01,2013-08-04 15:25:00,
2013-08-04 10:26:00,70.5,63.7,29.23,ENE,76,0.0,0.0,79,0.00,,,0.00,VWS V13.01,2013-08-04 15:26:00,
2013-08-04 10:28:00,70.3,63.5,29.23,ENE,76,0.0,0.0,79,0.00,,,0.00,VWS V13.01,2013-08-04 15:28:00,
2013-08-04 10:30:00,70.3,63.5,29.23,ENE,76,0.0,0.0,79,0.00,,,0.00,VWS V13.01,2013-08-04 15:30:00,
2013-08-04 10:31:00,70.2,63.3,29.23,ENE,76,0.0,0.0,79,0.00,,,0.00,VWS V13.01,2013-08-04 15:31:00,
2013-08-04 10:33:00,70.0,63.2,29.23,ENE,76,0.0,0.0,79,0.00,,,0.00,VWS V13.01,2013-08-04 15:33:00,
2013-08-04 10:35:00,69.8,63.0,29.23,ENE,76,0.0,0.0,79,0.00,,,0.00,VWS V13.01,2013-08-04 15:35:00,
2013-08-04 10:36:00,69.8,63.0,29.23,ENE,76,0.0,0.0,79,0.00,,,0.00,VWS V13.01,2013-08-04 15:36:00,
2013-08-04 10:38:00,69.8,67.1,29.23,ENE,76,0.0,0.0,91,0.00,,,0.00,VWS V13.01,2013-08-04 15:38:00,
2013-08-04 10:39:00,69.8,67.1,29.23,ENE,76,0.0,0.0,91,0.00,,,0.00,VWS V13.01,2013-08-04 15:39:00,
2013-08-04 10:40:00,69.8,67.1,29.23,ENE,76,0.0,0.0,91,0.00,,,0.00,VWS V13.01,2013-08-04 15:40:00,
2013-08-04 10:41:00,69.8,67.1,29.23,ENE,76,0.0,0.0,91,0.00,,,0.00,VWS V13.01,2013-08-04 15:41:00,
2013-08-04 10:43:00,69.6,68.7,29.23,ENE,76,0.0,0.0,97,0.00,,,0.00,VWS V13.01,2013-08-04 15:43:00,
2013-08-04 10:44:00,69.6,68.7,29.23,ENE,76,0.0,0.0,97,0.00,,,0.00,VWS V13.01,2013-08-04 15:44:00,
2013-08-04 10:45:00,69.4,69.4,29.23,ENE,76,0.0,0.0,100,0.00,,,0.00,VWS V13.01,2013-08-04 15:45:00,
2013-08-04 10:47:00,69.3,68.4,29.23,ENE,76,0.0,0.0,97,0.00,,,0.00,VWS V13.01,2013-08-04 15:47:00,
2013-08-04 10:48:00,69.1,68.2,29.23,ENE,76,0.0,0.0,97,0.00,,,0.00,VWS V13.01,2013-08-04 15:48:00,
2013-08-04 10:49:00,68.9,68.0,29.23,ENE,76,0.0,0.0,97,0.00,,,0.00,VWS V13.01,2013-08-04 15:49:00,
2013-08-04 10:50:00,68.5,68.5,29.23,ENE,76,0.0,0.0,100,0.00,,,0.00,VWS V13.01,2013-08-04 15:50:00,
2013-08-04 10:52:00,68.2,68.2,29.23,ENE,76,0.0,0.0,100,0.00,,,0.00,VWS V13.01,2013-08-04 15:52:00,
2013-08-04 10:53:00,68.0,68.0,29.23,ENE,76,0.0,0.0,100,0.00,,,0.00,VWS V13.01,2013-08-04 15:53:00,
2013-08-04 10:55:00,67.8,67.8,29.23,ENE,76,0.0,0.0,100,0.04,,,0.04,VWS V13.01,2013-08-04 15:55:00,
2013-08-04 10:57:00,67.5,67.5,29.23,ENE,76,0.0,0.0,100,0.08,,,0.08,VWS V13.01,2013-08-04 15:57:00,
2013-08-04 10:58:00,67.5,67.5,29.23,ENE,76,0.0,0.0,100,0.12,,,0.12,VWS V13.01,2013-08-04 15:58:00,
2013-08-04 11:00:00,67.1,67.1,29.23,ENE,76,0.0,0.0,100,0.20,,,0.20,VWS V13.01,2013-08-04 16:00:00,
2013-08-04 11:02:00,67.1,67.1,29.23,ENE,76,0.0,0.0,100,0.20,,,0.20,VWS V13.01,2013-08-04 16:02:00,
2013-08-04 11:03:00,66.9,66.9,29.23,ENE,76,0.0,0.0,100,0.24,,,0.24,VWS V13.01,2013-08-04 16:03:00,
2013-08-04 11:05:00,66.9,66.9,29.23,ENE,76,0.0,0.0,100,0.24,,,0.24,VWS V13.01,2013-08-04 16:05:00,
2013-08-04 11:06:00,66.9,66.9,29.23,ENE,76,0.0,0.0,100,0.24,,,0.24,VWS V13.01,2013-08-04 16:06:00,
2013-08-04 11:07:00,66.7,66.7,29.23,ENE,76,0.0,0.0,100,0.24,,,0.24,VWS V13.01,2013-08-04 16:07:00,
2013-08-04 11:08:00,66.9,66.9,29.23,South,180,0.0,0.0,100,0.24,,,0.24,VWS V13.01,2013-08-04 16:08:00,
2013-08-04 11:10:00,66.7,66.7,29.23,South,190,0.0,0.0,100,0.24,,,0.24,VWS V13.01,2013-08-04 16:10:00,
2013-08-04 11:11:00,66.7,66.7,29.23,South,189,0.0,0.0,100,0.24,,,0.28,VWS V13.01,2013-08-04 16:11:00,
2013-08-04 11:12:00,66.6,66.6,29.23,South,189,0.0,0.0,100,0.28,,,0.28,VWS V13.01,2013-08-04 16:12:00,
2013-08-04 11:13:00,66.7,66.7,29.23,South,189,0.0,0.0,100,0.28,,,0.28,VWS V13.01,2013-08-04 16:13:00,
2013-08-04 11:15:00,66.6,66.6,29.23,South,189,0.0,0.0,100,0.31,,,0.31,VWS V13.01,2013-08-04 16:15:00,
2013-08-04 11:16:00,66.7,66.7,29.23,South,189,0.0,0.0,100,0.31,,,0.31,VWS V13.01,2013-08-04 16:16:00,
2013-08-04 11:17:00,66.6,66.6,29.23,South,189,0.0,0.0,100,0.31,,,0.31,VWS V13.01,2013-08-04 16:17:00,
2013-08-04 11:19:00,66.6,66.6,29.23,South,189,0.0,0.0,100,0.31,,,0.35,VWS V13.01,2013-08-04 16:19:00,
2013-08-04 11:20:00,66.6,66.6,29.23,South,189,0.0,0.0,100,0.35,,,0.35,VWS V13.01,2013-08-04 16:20:00,
2013-08-04 11:21:00,66.6,66.6,29.23,South,189,0.0,0.0,100,0.35,,,0.35,VWS V13.01,2013-08-04 16:21:00,
2013-08-04 11:22:00,66.4,66.4,29.23,South,189,0.0,0.0,100,0.35,,,0.35,VWS V13.01,2013-08-04 16:22:00,
2013-08-04 11:24:00,66.4,66.4,29.23,South,189,0.0,0.0,100,0.35,,,0.35,VWS V13.01,2013-08-04 16:24:00,
2013-08-04 11:25:00,66.4,66.4,29.23,South,189,0.0,0.0,100,0.35,,,0.35,VWS V13.01,2013-08-04 16:25:00,
2013-08-04 11:26:00,66.4,66.4,29.23,South,189,0.0,0.0,100,0.35,,,0.35,VWS V13.01,2013-08-04 16:26:00,
2013-08-04 11:27:00,66.6,66.6,29.23,South,189,0.0,0.0,100,0.39,,,0.39,VWS V13.01,2013-08-04 16:27:00,
2013-08-04 11:29:00,66.6,66.6,29.23,South,189,0.0,0.0,100,0.39,,,0.39,VWS V13.01,2013-08-04 16:29:00,
2013-08-04 11:30:00,66.7,66.7,29.23,South,183,0.0,0.0,100,0.39,,,0.39,VWS V13.01,2013-08-04 16:30:00,
2013-08-04 11:31:00,66.7,66.7,29.23,South,183,0.0,0.0,100,0.39,,,0.39,VWS V13.01,2013-08-04 16:31:00,
2013-08-04 11:32:00,66.7,66.7,29.23,SSW,193,3.1,3.1,100,0.39,,,0.39,VWS V13.01,2013-08-04 16:32:00,
2013-08-04 11:34:00,66.6,66.6,29.23,South,172,0.0,0.0,100,0.39,,,0.39,VWS V13.01,2013-08-04 16:34:00,
2013-08-04 11:35:00,66.7,66.7,29.23,SSE,168,4.9,4.9,100,0.39,,,0.39,VWS V13.01,2013-08-04 16:35:00,
2013-08-04 11:36:00,66.7,66.7,29.23,SSE,168,4.9,4.9,100,0.39,,,0.39,VWS V13.01,2013-08-04 16:36:00,
2013-08-04 11:37:00,66.6,66.6,29.23,SSW,193,5.8,5.8,100,0.39,,,0.39,VWS V13.01,2013-08-04 16:37:00,
2013-08-04 11:38:00,66.6,66.6,29.23,SSW,200,2.2,2.2,100,0.39,,,0.39,VWS V13.01,2013-08-04 16:38:00,
2013-08-04 11:39:00,66.9,66.9,29.23,South,184,3.1,3.1,100,0.39,,,0.39,VWS V13.01,2013-08-04 16:39:00,
2013-08-04 11:40:00,66.9,66.9,29.23,South,171,2.2,2.2,100,0.39,,,0.39,VWS V13.01,2013-08-04 16:40:00,
2013-08-04 11:41:00,66.9,66.9,29.23,South,171,2.2,2.2,100,0.39,,,0.39,VWS V13.01,2013-08-04 16:41:00,
2013-08-04 11:42:00,66.9,66.9,29.23,South,190,0.0,0.0,100,0.39,,,0.39,VWS V13.01,2013-08-04 16:42:00,
2013-08-04 11:43:00,67.1,67.1,29.23,South,187,0.0,0.0,100,0.39,,,0.39,VWS V13.01,2013-08-04 16:43:00,
2013-08-04 11:44:00,67.1,67.1,29.23,South,187,0.0,0.0,100,0.39,,,0.39,VWS V13.01,2013-08-04 16:44:00,
2013-08-04 11:45:00,67.1,67.1,29.23,South,191,0.0,0.0,100,0.43,,,0.43,VWS V13.01,2013-08-04 16:45:00,
2013-08-04 11:46:00,67.1,67.1,29.23,South,191,0.0,0.0,100,0.43,,,0.43,VWS V13.01,2013-08-04 16:46:00,
2013-08-04 11:47:00,67.1,67.1,29.23,South,171,0.0,0.0,100,0.43,,,0.43,VWS V13.01,2013-08-04 16:47:00,
2013-08-04 11:48:00,67.1,67.1,29.23,ESE,122,0.0,0.0,100,0.43,,,0.43,VWS V13.01,2013-08-04 16:48:00,
2013-08-04 11:49:00,67.1,67.1,29.23,SW,219,0.0,0.0,100,0.43,,,0.43,VWS V13.01,2013-08-04 16:49:00,
2013-08-04 11:50:00,67.3,67.3,29.23,SSE,160,0.0,0.0,100,0.43,,,0.43,VWS V13.01,2013-08-04 16:50:00,
2013-08-04 11:51:00,67.3,67.3,29.23,SSE,160,0.0,0.0,100,0.43,,,0.43,VWS V13.01,2013-08-04 16:51:00,
2013-08-04 11:52:00,67.3,67.3,29.23,East,92,0.0,0.0,100,0.43,,,0.43,VWS V13.01,2013-08-04 16:52:00,
2013-08-04 11:53:00,67.3,67.3,29.23,East,92,0.0,0.0,100,0.43,,,0.43,VWS V13.01,2013-08-04 16:53:00,
2013-08-04 11:54:00,67.3,67.3,29.23,SE,139,0.0,0.0,100,0.43,,,0.43,VWS V13.01,2013-08-04 16:54:00,
2013-08-04 11:55:00,67.5,67.5,29.23,ESE,114,0.0,0.0,100,0.39,,,0.43,VWS V13.01,2013-08-04 16:55:00,
2013-08-04 11:56:00,67.5,67.5,29.23,ESE,114,0.0,0.0,100,0.39,,,0.43,VWS V13.01,2013-08-04 16:56:00,
2013-08-04 11:57:00,67.6,67.6,29.23,ESE,114,0.0,0.0,100,0.39,,,0.43,VWS V13.01,2013-08-04 16:57:00,
2013-08-04 11:58:00,67.6,67.6,29.23,SE,145,0.0,0.0,100,0.35,,,0.43,VWS V13.01,2013-08-04 16:58:00,
2013-08-04 11:59:00,67.8,67.8,29.23,East,94,2.7,2.7,100,0.31,,,0.43,VWS V13.01,2013-08-04 16:59:00,
2013-08-04 12:00:00,67.6,67.6,29.23,East,94,0.0,0.0,100,0.24,,,0.43,VWS V13.01,2013-08-04 17:00:00,
2013-08-04 12:01:00,67.6,67.6,29.23,East,94,0.0,0.0,100,0.24,,,0.43,VWS V13.01,2013-08-04 17:01:00,
2013-08-04 12:02:00,67.6,67.6,29.23,East,83,0.0,0.0,100,0.24,,,0.43,VWS V13.01,2013-08-04 17:02:00,
2013-08-04 12:03:00,67.6,67.6,29.23,East,83,0.0,0.0,100,0.24,,,0.43,VWS V13.01,2013-08-04 17:03:00,
2013-08-04 12:04:00,67.6,67.6,29.23,East,83,0.0,0.0,100,0.20,,,0.43,VWS V13.01,2013-08-04 17:04:00,
2013-08-04 12:06:00,67.6,67.6,29.23,East,83,0.0,0.0,100,0.20,,,0.43,VWS V13.01,2013-08-04 17:06:00,
2013-08-04 12:07:00,67.8,67.8,29.23,East,83,0.0,0.0,100,0.20,,,0.43,VWS V13.01,2013-08-04 17:07:00,
2013-08-04 12:08:00,68.0,68.0,29.23,East,83,0.0,0.0,100,0.20,,,0.43,VWS V13.01,2013-08-04 17:08:00,
2013-08-04 12:09:00,68.0,68.0,29.23,East,83,0.0,0.0,100,0.20,,,0.43,VWS V13.01,2013-08-04 17:09:00,
2013-08-04 12:11:00,68.0,68.0,29.23,East,83,0.0,0.0,100,0.20,,,0.43,VWS V13.01,2013-08-04 17:11:00,
2013-08-04 12:12:00,68.0,68.0,29.23,East,83,0.0,0.0,100,0.16,,,0.43,VWS V13.01,2013-08-04 17:12:00,
2013-08-04 12:13:00,68.0,68.0,29.23,ESE,116,0.0,0.0,100,0.16,,,0.43,VWS V13.01,2013-08-04 17:13:00,
2013-08-04 12:14:00,68.0,68.0,29.23,East,85,0.0,0.0,100,0.16,,,0.43,VWS V13.01,2013-08-04 17:14:00,
2013-08-04 12:16:00,68.0,68.0,29.23,ENE,77,0.0,0.0,100,0.12,,,0.43,VWS V13.01,2013-08-04 17:16:00,
2013-08-04 12:17:00,68.2,68.2,29.23,ENE,77,0.0,0.0,100,0.12,,,0.43,VWS V13.01,2013-08-04 17:17:00,
2013-08-04 12:18:00,68.2,68.2,29.23,ENE,77,0.0,0.0,100,0.12,,,0.43,VWS V13.01,2013-08-04 17:18:00,
2013-08-04 12:19:00,68.4,68.4,29.23,ENE,77,0.0,0.0,100,0.12,,,0.43,VWS V13.01,2013-08-04 17:19:00,
2013-08-04 12:21:00,68.4,68.4,29.23,ENE,77,0.0,0.0,100,0.08,,,0.43,VWS V13.01,2013-08-04 17:21:00,
2013-08-04 12:23:00,68.4,68.4,29.23,ENE,77,0.0,0.0,100,0.08,,,0.43,VWS V13.01,2013-08-04 17:23:00,
2013-08-04 12:24:00,68.4,68.4,29.23,East,91,0.0,0.0,100,0.08,,,0.43,VWS V13.01,2013-08-04 17:24:00,
2013-08-04 12:26:00,68.4,68.4,29.21,East,91,0.0,0.0,100,0.08,,,0.43,VWS V13.01,2013-08-04 17:26:00,
2013-08-04 12:28:00,68.4,68.4,29.21,East,80,0.0,0.0,100,0.04,,,0.43,VWS V13.01,2013-08-04 17:28:00,
2013-08-04 12:29:00,68.5,68.5,29.21,SSW,206,0.0,0.0,100,0.04,,,0.43,VWS V13.01,2013-08-04 17:29:00,
2013-08-04 12:32:00,68.7,68.7,29.21,SSW,205,0.0,0.0,100,0.04,,,0.43,VWS V13.01,2013-08-04 17:32:00,
2013-08-04 12:33:00,68.7,68.7,29.21,South,184,0.0,0.0,100,0.04,,,0.43,VWS V13.01,2013-08-04 17:33:00,
2013-08-04 12:34:00,68.7,68.7,29.21,SSW,194,3.6,3.6,100,0.04,,,0.43,VWS V13.01,2013-08-04 17:34:00,
2013-08-04 12:36:00,68.9,68.9,29.21,South,178,0.0,0.0,100,0.08,,,0.47,VWS V13.01,2013-08-04 17:36:00,
2013-08-04 12:38:00,68.9,68.9,29.21,SSW,196,0.0,0.0,100,0.08,,,0.47,VWS V13.01,2013-08-04 17:38:00,
2013-08-04 12:40:00,69.1,69.1,29.23,South,188,0.0,0.0,100,0.08,,,0.47,VWS V13.01,2013-08-04 17:40:00,
2013-08-04 12:42:00,69.1,69.1,29.23,WSW,249,0.0,0.0,100,0.08,,,0.47,VWS V13.01,2013-08-04 17:42:00,
2013-08-04 12:43:00,68.9,68.9,29.23,South,171,0.0,0.0,100,0.08,,,0.47,VWS V13.01,2013-08-04 17:43:00,
2013-08-04 12:44:00,68.9,68.9,29.23,South,187,0.0,0.0,100,0.08,,,0.47,VWS V13.01,2013-08-04 17:44:00,
2013-08-04 12:45:00,68.7,68.7,29.23,SSE,164,0.0,0.0,100,0.08,,,0.47,VWS V13.01,2013-08-04 17:45:00,
2013-08-04 12:47:00,68.7,68.7,29.23,ESE,123,0.0,0.0,100,0.04,,,0.47,VWS V13.01,2013-08-04 17:47:00,
2013-08-04 12:48:00,68.9,68.9,29.23,ESE,123,0.0,0.0,100,0.04,,,0.47,VWS V13.01,2013-08-04 17:48:00,
2013-08-04 12:49:00,68.9,68.9,29.23,SE,135,0.0,0.0,100,0.04,,,0.47,VWS V13.01,2013-08-04 17:49:00,
2013-08-04 12:50:00,68.9,68.9,29.23,SSW,207,4.0,4.0,100,0.04,,,0.47,VWS V13.01,2013-08-04 17:50:00,
2013-08-04 12:52:00,68.9,68.9,29.23,ESE,122,0.0,0.0,100,0.04,,,0.47,VWS V13.01,2013-08-04 17:52:00,
2013-08-04 12:53:00,68.9,68.9,29.23,South,181,2.7,2.7,100,0.04,,,0.47,VWS V13.01,2013-08-04 17:53:00,
2013-08-04 12:54:00,68.9,68.9,29.23,SSW,192,4.9,4.9,100,0.04,,,0.47,VWS V13.01,2013-08-04 17:54:00,
2013-08-04 12:55:00,68.9,68.9,29.23,South,186,2.2,2.2,100,0.04,,,0.47,VWS V13.01,2013-08-04 17:55:00,
2013-08-04 12:57:00,68.9,68.9,29.23,South,171,2.2,2.2,100,0.04,,,0.47,VWS V13.01,2013-08-04 17:57:00,
2013-08-04 12:58:00,68.9,68.9,29.23,SSW,211,0.0,0.0,100,0.04,,,0.47,VWS V13.01,2013-08-04 17:58:00,
2013-08-04 12:59:00,69.1,69.1,29.23,South,178,0.0,0.0,100,0.04,,,0.47,VWS V13.01,2013-08-04 17:59:00,
2013-08-04 13:00:00,69.1,69.1,29.23,SSE,157,2.7,2.7,100,0.04,,,0.47,VWS V13.01,2013-08-04 18:00:00,
2013-08-04 13:02:00,69.1,69.1,29.23,South,191,2.7,2.7,100,0.04,,,0.47,VWS V13.01,2013-08-04 18:02:00,
2013-08-04 13:03:00,69.1,69.1,29.23,South,190,0.0,0.0,100,0.04,,,0.47,VWS V13.01,2013-08-04 18:03:00,
2013-08-04 13:04:00,69.1,69.1,29.23,SSW,205,0.0,0.0,100,0.04,,,0.47,VWS V13.01,2013-08-04 18:04:00,
2013-08-04 13:05:00,69.3,69.3,29.23,South,187,0.0,0.0,100,0.04,,,0.47,VWS V13.01,2013-08-04 18:05:00,
2013-08-04 13:07:00,69.3,69.3,29.23,South,178,0.0,0.0,100,0.04,,,0.47,VWS V13.01,2013-08-04 18:07:00,
2013-08-04 13:08:00,69.3,69.3,29.23,SSW,192,2.7,2.7,100,0.04,,,0.47,VWS V13.01,2013-08-04 18:08:00,
2013-08-04 13:09:00,69.3,69.3,29.23,South,170,0.0,0.0,100,0.04,,,0.47,VWS V13.01,2013-08-04 18:09:00,
2013-08-04 13:10:00,69.3,69.3,29.23,South,170,0.0,0.0,100,0.04,,,0.47,VWS V13.01,2013-08-04 18:10:00,
2013-08-04 13:12:00,69.3,69.3,29.23,NE,42,0.0,0.0,100,0.04,,,0.47,VWS V13.01,2013-08-04 18:12:00,
2013-08-04 13:13:00,69.4,69.4,29.23,NE,45,0.0,0.0,100,0.04,,,0.47,VWS V13.01,2013-08-04 18:13:00,
2013-08-04 13:14:00,69.4,69.4,29.23,NE,45,0.0,0.0,100,0.04,,,0.47,VWS V13.01,2013-08-04 18:14:00,
2013-08-04 13:15:00,69.4,69.4,29.23,NE,45,0.0,0.0,100,0.04,,,0.47,VWS V13.01,2013-08-04 18:15:00,
2013-08-04 13:17:00,69.4,69.4,29.23,East,80,0.0,0.0,100,0.04,,,0.47,VWS V13.01,2013-08-04 18:17:00,
2013-08-04 13:18:00,69.4,69.4,29.23,East,87,0.0,0.0,100,0.04,,,0.47,VWS V13.01,2013-08-04 18:18:00,
2013-08-04 13:19:00,69.4,69.4,29.23,East,87,0.0,0.0,100,0.04,,,0.47,VWS V13.01,2013-08-04 18:19:00,
2013-08-04 13:20:00,69.4,69.4,29.23,ENE,78,0.0,0.0,100,0.04,,,0.47,VWS V13.01,2013-08-04 18:20:00,
2013-08-04 13:22:00,69.3,69.3,29.23,NNE,25,0.0,0.0,100,0.04,,,0.47,VWS V13.01,2013-08-04 18:22:00,
2013-08-04 13:23:00,69.4,69.4,29.23,NE,53,0.0,0.0,100,0.04,,,0.47,VWS V13.01,2013-08-04 18:23:00,
2013-08-04 13:24:00,69.4,69.4,29.23,NE,53,0.0,0.0,100,0.04,,,0.47,VWS V13.01,2013-08-04 18:24:00,
2013-08-04 13:25:00,69.4,69.4,29.23,NE,53,0.0,0.0,100,0.04,,,0.47,VWS V13.01,2013-08-04 18:25:00,
2013-08-04 13:27:00,69.6,69.6,29.23,NE,53,0.0,0.0,100,0.04,,,0.47,VWS V13.01,2013-08-04 18:27:00,
2013-08-04 13:28:00,69.8,69.8,29.23,SSW,213,0.0,0.0,100,0.04,,,0.47,VWS V13.01,2013-08-04 18:28:00,
2013-08-04 13:29:00,69.8,69.8,29.23,South,187,0.0,0.0,100,0.04,,,0.47,VWS V13.01,2013-08-04 18:29:00,
2013-08-04 13:30:00,69.8,69.8,29.23,South,187,0.0,0.0,100,0.04,,,0.47,VWS V13.01,2013-08-04 18:30:00,
2013-08-04 13:32:00,69.8,69.8,29.23,ENE,59,0.0,0.0,100,0.04,,,0.47,VWS V13.01,2013-08-04 18:32:00,
2013-08-04 13:33:00,69.8,69.8,29.23,ENE,59,0.0,0.0,100,0.04,,,0.47,VWS V13.01,2013-08-04 18:33:00,
2013-08-04 13:34:00,69.8,69.8,29.23,ENE,59,0.0,0.0,100,0.04,,,0.47,VWS V13.01,2013-08-04 18:34:00,
2013-08-04 13:35:00,69.8,69.8,29.23,ENE,59,0.0,0.0,100,0.04,,,0.47,VWS V13.01,2013-08-04 18:35:00,
2013-08-04 13:37:00,69.8,69.8,29.23,ENE,73,0.0,0.0,100,0.00,,,0.47,VWS V13.01,2013-08-04 18:37:00,
2013-08-04 13:38:00,69.8,69.8,29.23,ENE,73,0.0,0.0,100,0.00,,,0.47,VWS V13.01,2013-08-04 18:38:00,
2013-08-04 13:39:00,69.8,69.8,29.23,ENE,73,0.0,0.0,100,0.00,,,0.47,VWS V13.01,2013-08-04 18:39:00,
2013-08-04 13:40:00,69.8,69.8,29.23,ENE,72,0.0,0.0,100,0.00,,,0.47,VWS V13.01,2013-08-04 18:40:00,
2013-08-04 13:42:00,69.8,69.8,29.23,East,79,0.0,0.0,100,0.00,,,0.47,VWS V13.01,2013-08-04 18:42:00,
2013-08-04 13:43:00,69.8,69.8,29.23,East,99,2.2,2.2,100,0.00,,,0.47,VWS V13.01,2013-08-04 18:43:00,
2013-08-04 13:44:00,69.6,69.6,29.23,East,99,0.0,0.0,100,0.00,,,0.47,VWS V13.01,2013-08-04 18:44:00,
2013-08-04 13:45:00,69.6,69.6,29.23,East,99,0.0,0.0,100,0.00,,,0.47,VWS V13.01,2013-08-04 18:45:00,
2013-08-04 13:46:00,69.8,69.8,29.23,SSW,201,0.0,0.0,100,0.00,,,0.47,VWS V13.01,2013-08-04 18:46:00,
2013-08-04 13:47:00,70.2,70.2,29.23,SSE,165,0.0,0.0,100,0.00,,,0.47,VWS V13.01,2013-08-04 18:47:00,
2013-08-04 13:48:00,70.2,70.2,29.23,SSE,147,0.0,0.0,100,0.00,,,0.47,VWS V13.01,2013-08-04 18:48:00,
2013-08-04 13:49:00,70.2,70.2,29.23,SSE,147,0.0,0.0,100,0.00,,,0.47,VWS V13.01,2013-08-04 18:49:00,
2013-08-04 13:50:00,70.2,70.2,29.23,SSE,147,0.0,0.0,100,0.00,,,0.47,VWS V13.01,2013-08-04 18:50:00,
2013-08-04 13:51:00,70.2,70.2,29.23,SSE,147,0.0,0.0,100,0.00,,,0.47,VWS V13.01,2013-08-04 18:51:00,
2013-08-04 13:52:00,70.2,70.2,29.23,South,189,0.0,0.0,100,0.04,,,0.51,VWS V13.01,2013-08-04 18:52:00,
2013-08-04 13:53:00,70.3,70.3,29.23,South,189,0.0,0.0,100,0.04,,,0.51,VWS V13.01,2013-08-04 18:53:00,
2013-08-04 13:54:00,70.3,70.3,29.23,SSE,155,0.0,0.0,100,0.04,,,0.51,VWS V13.01,2013-08-04 18:54:00,
2013-08-04 13:55:00,70.3,70.3,29.21,South,187,4.0,4.0,100,0.04,,,0.51,VWS V13.01,2013-08-04 18:55:00,
2013-08-04 13:56:00,70.3,70.3,29.21,South,187,3.6,3.6,100,0.04,,,0.51,VWS V13.01,2013-08-04 18:56:00,
2013-08-04 13:57:00,70.3,70.3,29.21,South,190,3.1,3.1,100,0.04,,,0.51,VWS V13.01,2013-08-04 18:57:00,
2013-08-04 13:59:00,70.3,70.3,29.21,SSW,195,0.0,0.0,100,0.04,,,0.51,VWS V13.01,2013-08-04 18:59:00,
2013-08-04 14:00:00,70.2,70.2,29.21,SSE,148,2.7,2.7,100,0.04,,,0.51,VWS V13.01,2013-08-04 19:00:00,
2013-08-04 14:01:00,70.2,70.2,29.21,SSE,148,0.0,0.0,100,0.04,,,0.51,VWS V13.01,2013-08-04 19:01:00,
2013-08-04 14:02:00,70.3,70.3,29.21,SSE,150,0.0,0.0,100,0.04,,,0.51,VWS V13.01,2013-08-04 19:02:00,
2013-08-04 14:03:00,70.3,70.3,29.21,SSW,197,0.0,0.0,100,0.04,,,0.51,VWS V13.01,2013-08-04 19:03:00,
2013-08-04 14:04:00,70.3,70.3,29.21,SSW,197,0.0,0.0,100,0.04,,,0.51,VWS V13.01,2013-08-04 19:04:00,
2013-08-04 14:05:00,70.5,70.5,29.21,SSW,206,0.0,0.0,100,0.04,,,0.51,VWS V13.01,2013-08-04 19:05:00,
2013-08-04 14:06:00,70.5,70.5,29.21,South,191,3.6,3.6,100,0.04,,,0.51,VWS V13.01,2013-08-04 19:06:00,
2013-08-04 14:07:00,70.5,70.5,29.21,South,191,0.0,0.0,100,0.04,,,0.51,VWS V13.01,2013-08-04 19:07:00,
2013-08-04 14:09:00,70.7,70.7,29.21,SSE,148,0.0,0.0,100,0.04,,,0.51,VWS V13.01,2013-08-04 19:09:00,
2013-08-04 14:10:00,70.5,70.5,29.21,South,170,0.0,0.0,100,0.04,,,0.51,VWS V13.01,2013-08-04 19:10:00,
2013-08-04 14:11:00,70.5,70.5,29.21,South,179,0.0,0.0,100,0.04,,,0.51,VWS V13.01,2013-08-04 19:11:00,
2013-08-04 14:12:00,70.7,70.7,29.21,South,182,0.0,0.0,100,0.04,,,0.51,VWS V13.01,2013-08-04 19:12:00,
2013-08-04 14:14:00,70.9,70.9,29.21,East,99,3.1,3.1,100,0.04,,,0.51,VWS V13.01,2013-08-04 19:14:00,
2013-08-04 14:15:00,70.7,70.7,29.21,ESE,110,0.0,0.0,100,0.04,,,0.51,VWS V13.01,2013-08-04 19:15:00,
2013-08-04 14:16:00,70.5,70.5,29.21,ENE,72,0.0,0.0,100,0.04,,,0.51,VWS V13.01,2013-08-04 19:16:00,
2013-08-04 14:17:00,70.7,70.7,29.21,SE,138,0.0,0.0,100,0.04,,,0.51,VWS V13.01,2013-08-04 19:17:00,
2013-08-04 14:19:00,70.7,70.7,29.21,SSE,160,0.0,0.0,100,0.04,,,0.51,VWS V13.01,2013-08-04 19:19:00,
2013-08-04 14:21:00,70.9,70.9,29.21,SSW,196,0.0,0.0,100,0.04,,,0.51,VWS V13.01,2013-08-04 19:21:00,
2013-08-04 14:22:00,70.9,70.9,29.21,South,180,2.7,2.7,100,0.04,,,0.51,VWS V13.01,2013-08-04 19:22:00,
2013-08-04 14:24:00,70.9,70.9,29.21,SSW,195,0.0,0.0,100,0.04,,,0.51,VWS V13.01,2013-08-04 19:24:00,
2013-08-04 14:26:00,70.9,70.9,29.21,SSW,195,0.0,0.0,100,0.04,,,0.51,VWS V13.01,2013-08-04 19:26:00,
2013-08-04 14:27:00,70.9,70.9,29.21,East,101,3.1,3.1,100,0.04,,,0.51,VWS V13.01,2013-08-04 19:27:00,
2013-08-04 14:29:00,70.9,70.9,29.21,East,98,0.0,0.0,100,0.04,,,0.51,VWS V13.01,2013-08-04 19:29:00,
2013-08-04 14:31:00,70.9,70.9,29.21,East,98,0.0,0.0,100,0.04,,,0.51,VWS V13.01,2013-08-04 19:31:00,
2013-08-04 14:32:00,71.1,71.1,29.21,SE,135,0.0,0.0,100,0.04,,,0.51,VWS V13.01,2013-08-04 19:32:00,
2013-08-04 14:33:00,71.1,71.1,29.21,East,88,0.0,0.0,100,0.04,,,0.51,VWS V13.01,2013-08-04 19:33:00,
2013-08-04 14:34:00,71.1,71.1,29.21,East,80,0.0,0.0,100,0.04,,,0.51,VWS V13.01,2013-08-04 19:34:00,
2013-08-04 14:35:00,71.1,71.1,29.21,SW,234,0.0,0.0,100,0.04,,,0.51,VWS V13.01,2013-08-04 19:35:00,
2013-08-04 14:36:00,71.1,71.1,29.21,SSW,195,0.0,0.0,100,0.04,,,0.51,VWS V13.01,2013-08-04 19:36:00,
2013-08-04 14:37:00,71.1,71.1,29.21,SSW,193,0.0,0.0,100,0.04,,,0.51,VWS V13.01,2013-08-04 19:37:00,
2013-08-04 14:38:00,71.1,71.1,29.21,SSW,193,0.0,0.0,100,0.04,,,0.51,VWS V13.01,2013-08-04 19:38:00,
2013-08-04 14:39:00,71.1,71.1,29.21,SSE,164,0.0,0.0,100,0.04,,,0.51,VWS V13.01,2013-08-04 19:39:00,
2013-08-04 14:40:00,71.2,71.2,29.21,South,169,0.0,0.0,100,0.04,,,0.51,VWS V13.01,2013-08-04 19:40:00,
2013-08-04 14:41:00,71.2,71.2,29.21,South,187,0.0,0.0,100,0.04,,,0.51,VWS V13.01,2013-08-04 19:41:00,
2013-08-04 14:43:00,70.9,70.9,29.21,SSW,192,0.0,0.0,100,0.04,,,0.51,VWS V13.01,2013-08-04 19:43:00,
2013-08-04 14:44:00,70.9,70.9,29.21,SSW,193,0.0,0.0,100,0.04,,,0.51,VWS V13.01,2013-08-04 19:44:00,
2013-08-04 14:45:00,70.9,70.9,29.21,SSW,193,0.0,0.0,100,0.04,,,0.51,VWS V13.01,2013-08-04 19:45:00,
2013-08-04 14:46:00,71.1,71.1,29.21,East,98,0.0,0.0,100,0.04,,,0.51,VWS V13.01,2013-08-04 19:46:00,
2013-08-04 14:48:00,70.9,70.9,29.21,East,98,0.0,0.0,100,0.04,,,0.51,VWS V13.01,2013-08-04 19:48:00,
2013-08-04 14:49:00,71.1,71.1,29.21,SSE,163,0.0,0.0,100,0.04,,,0.51,VWS V13.01,2013-08-04 19:49:00,
2013-08-04 14:50:00,71.1,71.1,29.21,SSE,167,0.0,0.0,100,0.04,,,0.51,VWS V13.01,2013-08-04 19:50:00,
2013-08-04 14:51:00,71.2,71.2,29.21,South,183,0.0,0.0,100,0.04,,,0.51,VWS V13.01,2013-08-04 19:51:00,
2013-08-04 14:53:00,71.2,71.2,29.21,South,184,0.0,0.0,100,0.04,,,0.51,VWS V13.01,2013-08-04 19:53:00,
2013-08-04 14:54:00,71.1,71.1,29.21,South,185,0.0,0.0,100,0.00,,,0.51,VWS V13.01,2013-08-04 19:54:00,
2013-08-04 14:55:00,71.2,71.2,29.21,South,185,0.0,0.0,100,0.00,,,0.51,VWS V13.01,2013-08-04 19:55:00,
2013-08-04 14:56:00,71.4,71.4,29.21,South,185,0.0,0.0,100,0.00,,,0.51,VWS V13.01,2013-08-04 19:56:00,
2013-08-04 14:58:00,70.9,70.9,29.21,South,185,0.0,0.0,100,0.00,,,0.51,VWS V13.01,2013-08-04 19:58:00,
2013-08-04 14:59:00,70.9,70.9,29.21,South,185,0.0,0.0,100,0.00,,,0.51,VWS V13.01,2013-08-04 19:59:00,
2013-08-04 15:00:00,71.1,71.1,29.21,South,185,0.0,0.0,100,0.00,,,0.51,VWS V13.01,2013-08-04 20:00:00,
2013-08-04 15:02:00,71.4,71.4,29.21,South,185,0.0,0.0,100,0.00,,,0.51,VWS V13.01,2013-08-04 20:02:00,
2013-08-04 15:03:00,71.8,71.8,29.21,South,185,0.0,0.0,100,0.00,,,0.51,VWS V13.01,2013-08-04 20:03:00,
2013-08-04 15:04:00,72.0,72.0,29.21,South,185,0.0,0.0,100,0.00,,,0.51,VWS V13.01,2013-08-04 20:04:00,
2013-08-04 15:05:00,72.0,72.0,29.21,South,185,0.0,0.0,100,0.00,,,0.51,VWS V13.01,2013-08-04 20:05:00,
2013-08-04 15:07:00,71.8,71.8,29.21,South,185,0.0,0.0,100,0.00,,,0.51,VWS V13.01,2013-08-04 20:07:00,
2013-08-04 15:08:00,71.8,71.8,29.21,South,185,0.0,0.0,100,0.00,,,0.51,VWS V13.01,2013-08-04 20:08:00,
2013-08-04 15:09:00,71.2,71.2,29.21,South,185,0.0,0.0,100,0.00,,,0.51,VWS V13.01,2013-08-04 20:09:00,
2013-08-04 15:10:00,71.2,71.2,29.21,South,185,0.0,0.0,100,0.00,,,0.51,VWS V13.01,2013-08-04 20:10:00,
2013-08-04 15:12:00,71.2,71.2,29.21,South,185,0.0,0.0,100,0.00,,,0.51,VWS V13.01,2013-08-04 20:12:00,
2013-08-04 15:13:00,71.2,71.2,29.21,South,185,0.0,0.0,100,0.00,,,0.51,VWS V13.01,2013-08-04 20:13:00,
2013-08-04 15:14:00,71.4,71.4,29.21,South,185,0.0,0.0,100,0.00,,,0.51,VWS V13.01,2013-08-04 20:14:00,
2013-08-04 15:15:00,71.4,71.4,29.21,South,185,0.0,0.0,100,0.00,,,0.51,VWS V13.01,2013-08-04 20:15:00,
2013-08-04 15:17:00,71.4,71.4,29.21,South,185,0.0,0.0,100,0.00,,,0.51,VWS V13.01,2013-08-04 20:17:00,
2013-08-04 15:18:00,71.2,71.2,29.21,South,185,0.0,0.0,100,0.00,,,0.51,VWS V13.01,2013-08-04 20:18:00,
2013-08-04 15:20:00,71.2,71.2,29.21,South,185,0.0,0.0,100,0.00,,,0.51,VWS V13.01,2013-08-04 20:20:00,
2013-08-04 15:22:00,71.2,71.2,29.21,South,185,0.0,0.0,100,0.00,,,0.51,VWS V13.01,2013-08-04 20:22:00,
2013-08-04 15:23:00,71.1,71.1,29.21,South,185,0.0,0.0,100,0.00,,,0.51,VWS V13.01,2013-08-04 20:23:00,
2013-08-04 15:25:00,71.1,71.1,29.21,South,185,0.0,0.0,100,0.00,,,0.51,VWS V13.01,2013-08-04 20:25:00,
2013-08-04 15:27:00,71.1,71.1,29.21,South,185,0.0,0.0,100,0.00,,,0.51,VWS V13.01,2013-08-04 20:27:00,
2013-08-04 15:28:00,71.1,71.1,29.21,South,185,0.0,0.0,100,0.00,,,0.51,VWS V13.01,2013-08-04 20:28:00,
2013-08-04 15:30:00,71.1,71.1,29.21,South,185,0.0,0.0,100,0.00,,,0.51,VWS V13.01,2013-08-04 20:30:00,
2013-08-04 15:32:00,71.2,71.2,29.21,South,185,0.0,0.0,100,0.00,,,0.51,VWS V13.01,2013-08-04 20:32:00,
2013-08-04 15:33:00,71.2,71.2,29.21,South,185,0.0,0.0,100,0.00,,,0.51,VWS V13.01,2013-08-04 20:33:00,
2013-08-04 15:35:00,70.9,70.9,29.21,South,185,0.0,0.0,100,0.00,,,0.51,VWS V13.01,2013-08-04 20:35:00,
2013-08-04 15:36:00,70.9,70.9,29.21,South,185,0.0,0.0,100,0.00,,,0.51,VWS V13.01,2013-08-04 20:36:00,
2013-08-04 15:37:00,70.9,70.9,29.21,South,185,0.0,0.0,100,0.00,,,0.51,VWS V13.01,2013-08-04 20:37:00,
2013-08-04 15:38:00,70.9,70.9,29.21,South,185,0.0,0.0,100,0.00,,,0.51,VWS V13.01,2013-08-04 20:38:00,
2013-08-04 15:40:00,70.9,70.9,29.21,South,185,0.0,0.0,100,0.00,,,0.51,VWS V13.01,2013-08-04 20:40:00,
2013-08-04 15:41:00,70.7,70.7,29.21,South,184,0.0,0.0,100,0.00,,,0.51,VWS V13.01,2013-08-04 20:41:00,
2013-08-04 15:43:00,70.9,70.9,29.21,East,84,0.0,0.0,100,0.00,,,0.51,VWS V13.01,2013-08-04 20:43:00,
2013-08-04 15:45:00,70.7,70.7,29.21,ENE,58,0.0,0.0,100,0.00,,,0.51,VWS V13.01,2013-08-04 20:45:00,
2013-08-04 15:46:00,70.9,70.9,29.21,NE,54,0.0,0.0,100,0.00,,,0.51,VWS V13.01,2013-08-04 20:46:00,
2013-08-04 15:48:00,70.7,70.7,29.21,ENE,76,0.0,0.0,100,0.00,,,0.51,VWS V13.01,2013-08-04 20:48:00,
2013-08-04 15:50:00,70.7,70.7,29.21,ENE,74,0.0,0.0,100,0.00,,,0.51,VWS V13.01,2013-08-04 20:50:00,
2013-08-04 15:51:00,70.7,70.7,29.21,East,95,0.0,0.0,100,0.00,,,0.51,VWS V13.01,2013-08-04 20:51:00,
2013-08-04 15:53:00,70.7,70.7,29.21,ENE,78,0.0,0.0,100,0.00,,,0.51,VWS V13.01,2013-08-04 20:53:00,
2013-08-04 15:54:00,70.7,70.7,29.21,East,79,0.0,0.0,100,0.00,,,0.51,VWS V13.01,2013-08-04 20:54:00,
2013-08-04 15:55:00,70.7,70.7,29.21,ENE,78,0.0,0.0,100,0.00,,,0.51,VWS V13.01,2013-08-04 20:55:00,
2013-08-04 15:56:00,70.7,70.7,29.21,ENE,77,0.0,0.0,100,0.00,,,0.51,VWS V13.01,2013-08-04 20:56:00,
2013-08-04 15:58:00,70.7,70.7,29.21,East,82,0.0,0.0,100,0.00,,,0.51,VWS V13.01,2013-08-04 20:58:00,
2013-08-04 15:59:00,70.7,70.7,29.21,East,82,0.0,0.0,100,0.00,,,0.51,VWS V13.01,2013-08-04 20:59:00,
2013-08-04 16:00:00,70.9,70.9,29.21,East,82,0.0,0.0,100,0.00,,,0.51,VWS V13.01,2013-08-04 21:00:00,
2013-08-04 16:01:00,70.9,70.9,29.21,ENE,65,0.0,0.0,100,0.00,,,0.51,VWS V13.01,2013-08-04 21:01:00,
2013-08-04 16:03:00,70.9,70.9,29.21,ENE,65,4.0,4.0,100,0.00,,,0.51,VWS V13.01,2013-08-04 21:03:00,
2013-08-04 16:04:00,70.9,70.9,29.21,ENE,64,0.0,0.0,100,0.00,,,0.51,VWS V13.01,2013-08-04 21:04:00,
2013-08-04 16:05:00,70.7,70.7,29.21,ENE,74,0.0,0.0,100,0.00,,,0.51,VWS V13.01,2013-08-04 21:05:00,
2013-08-04 16:06:00,70.7,70.7,29.21,ENE,75,2.7,2.7,100,0.00,,,0.51,VWS V13.01,2013-08-04 21:06:00,
2013-08-04 16:08:00,70.5,70.5,29.21,ENE,71,2.2,2.2,100,0.00,,,0.51,VWS V13.01,2013-08-04 21:08:00,
2013-08-04 16:09:00,70.5,70.5,29.21,ENE,76,0.0,0.0,100,0.00,,,0.51,VWS V13.01,2013-08-04 21:09:00,
2013-08-04 16:10:00,70.5,70.5,29.21,East,86,0.0,0.0,100,0.00,,,0.51,VWS V13.01,2013-08-04 21:10:00,
2013-08-04 16:11:00,70.5,70.5,29.21,ENE,73,0.0,0.0,100,0.00,,,0.51,VWS V13.01,2013-08-04 21:11:00,
2013-08-04 16:13:00,70.7,70.7,29.21,ENE,73,0.0,0.0,100,0.00,,,0.51,VWS V13.01,2013-08-04 21:13:00,
2013-08-04 16:14:00,70.7,70.7,29.21,ENE,62,0.0,0.0,100,0.00,,,0.51,VWS V13.01,2013-08-04 21:14:00,
2013-08-04 16:15:00,70.7,70.7,29.21,ENE,62,0.0,0.0,100,0.00,,,0.51,VWS V13.01,2013-08-04 21:15:00,
2013-08-04 16:16:00,70.7,70.7,29.21,ESE,111,0.0,0.0,100,0.00,,,0.51,VWS V13.01,2013-08-04 21:16:00,
2013-08-04 16:18:00,70.7,70.7,29.21,ESE,111,0.0,0.0,100,0.00,,,0.51,VWS V13.01,2013-08-04 21:18:00,
2013-08-04 16:19:00,70.7,70.7,29.21,ESE,111,0.0,0.0,100,0.00,,,0.51,VWS V13.01,2013-08-04 21:19:00,
2013-08-04 16:20:00,70.7,70.7,29.21,ENE,75,0.0,0.0,100,0.00,,,0.51,VWS V13.01,2013-08-04 21:20:00,
2013-08-04 16:21:00,70.7,70.7,29.21,ENE,75,0.0,0.0,100,0.00,,,0.51,VWS V13.01,2013-08-04 21:21:00,
2013-08-04 16:23:00,70.5,70.5,29.21,ENE,75,0.0,0.0,100,0.00,,,0.51,VWS V13.01,2013-08-04 21:23:00,
2013-08-04 16:24:00,70.5,70.5,29.21,ENE,75,0.0,0.0,100,0.00,,,0.51,VWS V13.01,2013-08-04 21:24:00,
2013-08-04 16:25:00,70.5,70.5,29.21,ENE,75,0.0,0.0,100,0.00,,,0.51,VWS V13.01,2013-08-04 21:25:00,
2013-08-04 16:26:00,70.5,70.5,29.21,ENE,75,0.0,0.0,100,0.00,,,0.51,VWS V13.01,2013-08-04 21:26:00,
2013-08-04 16:28:00,70.7,70.7,29.21,ENE,75,0.0,0.0,100,0.00,,,0.51,VWS V13.01,2013-08-04 21:28:00,
2013-08-04 16:29:00,70.7,70.7,29.21,ENE,75,0.0,0.0,100,0.00,,,0.51,VWS V13.01,2013-08-04 21:29:00,
2013-08-04 16:30:00,70.9,70.9,29.21,ESE,116,0.0,0.0,100,0.00,,,0.51,VWS V13.01,2013-08-04 21:30:00,
2013-08-04 16:31:00,70.9,70.9,29.21,ESE,119,0.0,0.0,100,0.00,,,0.51,VWS V13.01,2013-08-04 21:31:00,
2013-08-04 16:33:00,70.9,70.9,29.21,South,191,0.0,0.0,100,0.00,,,0.51,VWS V13.01,2013-08-04 21:33:00,
2013-08-04 16:34:00,71.1,71.1,29.21,South,191,0.0,0.0,100,0.00,,,0.51,VWS V13.01,2013-08-04 21:34:00,
2013-08-04 16:35:00,71.1,71.1,29.21,SSW,193,0.0,0.0,100,0.00,,,0.51,VWS V13.01,2013-08-04 21:35:00,
2013-08-04 16:37:00,70.9,70.9,29.21,South,188,0.0,0.0,100,0.00,,,0.51,VWS V13.01,2013-08-04 21:37:00,
2013-08-04 16:38:00,70.7,70.7,29.21,SSW,194,0.0,0.0,100,0.00,,,0.51,VWS V13.01,2013-08-04 21:38:00,
2013-08-04 16:39:00,70.7,70.7,29.21,SSW,194,0.0,0.0,100,0.00,,,0.51,VWS V13.01,2013-08-04 21:39:00,
2013-08-04 16:40:00,70.9,70.9,29.21,SSW,193,2.7,2.7,100,0.00,,,0.51,VWS V13.01,2013-08-04 21:40:00,
2013-08-04 16:42:00,71.1,71.1,29.21,SSW,193,0.0,0.0,100,0.00,,,0.51,VWS V13.01,2013-08-04 21:42:00,
2013-08-04 16:43:00,71.1,71.1,29.21,SSW,193,0.0,0.0,100,0.00,,,0.51,VWS V13.01,2013-08-04 21:43:00,
2013-08-04 16:44:00,71.2,71.2,29.21,SSW,193,0.0,0.0,100,0.00,,,0.51,VWS V13.01,2013-08-04 21:44:00,
2013-08-04 16:45:00,71.2,71.2,29.21,SSW,193,0.0,0.0,100,0.00,,,0.51,VWS V13.01,2013-08-04 21:45:00,
2013-08-04 16:46:00,71.2,71.2,29.21,NE,53,0.0,0.0,100,0.00,,,0.51,VWS V13.01,2013-08-04 21:46:00,
2013-08-04 16:47:00,71.2,71.2,29.21,NE,54,0.0,0.0,100,0.00,,,0.51,VWS V13.01,2013-08-04 21:47:00,
2013-08-04 16:48:00,71.2,71.2,29.21,NE,54,0.0,0.0,100,0.00,,,0.51,VWS V13.01,2013-08-04 21:48:00,
2013-08-04 16:49:00,71.2,71.2,29.21,NE,54,0.0,0.0,100,0.00,,,0.51,VWS V13.01,2013-08-04 21:49:00,
2013-08-04 16:50:00,71.2,71.2,29.21,SSW,202,0.0,0.0,100,0.00,,,0.51,VWS V13.01,2013-08-04 21:50:00,
2013-08-04 16:51:00,71.4,71.4,29.21,SW,217,0.0,0.0,100,0.00,,,0.51,VWS V13.01,2013-08-04 21:51:00,
2013-08-04 16:53:00,71.8,71.8,29.21,ESE,102,0.0,0.0,100,0.00,,,0.51,VWS V13.01,2013-08-04 21:53:00,
2013-08-04 16:54:00,71.8,71.8,29.21,ESE,102,0.0,0.0,100,0.00,,,0.51,VWS V13.01,2013-08-04 21:54:00,
2013-08-04 16:55:00,71.8,71.8,29.18,ENE,68,0.0,0.0,100,0.00,,,0.51,VWS V13.01,2013-08-04 21:55:00,
2013-08-04 16:56:00,71.6,71.6,29.18,East,89,0.0,0.0,100,0.00,,,0.51,VWS V13.01,2013-08-04 21:56:00,
2013-08-04 16:58:00,71.6,71.6,29.18,SSW,196,0.0,0.0,100,0.00,,,0.51,VWS V13.01,2013-08-04 21:58:00,
2013-08-04 16:59:00,71.6,71.6,29.18,SSW,193,0.0,0.0,100,0.00,,,0.51,VWS V13.01,2013-08-04 21:59:00,
2013-08-04 17:00:00,71.4,71.4,29.18,SSW,194,0.0,0.0,100,0.00,,,0.51,VWS V13.01,2013-08-04 22:00:00,
2013-08-04 17:01:00,71.4,71.4,29.18,SSW,194,0.0,0.0,100,0.00,,,0.51,VWS V13.01,2013-08-04 22:01:00,
2013-08-04 17:03:00,71.1,71.1,29.18,SSE,163,0.0,0.0,100,0.00,,,0.51,VWS V13.01,2013-08-04 22:03:00,
2013-08-04 17:04:00,71.1,71.1,29.18,South,182,0.0,0.0,100,0.00,,,0.51,VWS V13.01,2013-08-04 22:04:00,
2013-08-04 17:05:00,71.1,71.1,29.18,SSE,152,0.0,0.0,100,0.00,,,0.51,VWS V13.01,2013-08-04 22:05:00,
2013-08-04 17:06:00,71.1,71.1,29.18,SSE,152,0.0,0.0,100,0.00,,,0.51,VWS V13.01,2013-08-04 22:06:00,
2013-08-04 17:08:00,71.1,71.1,29.18,SSW,202,0.0,0.0,100,0.00,,,0.51,VWS V13.01,2013-08-04 22:08:00,
2013-08-04 17:09:00,71.1,71.1,29.18,South,183,3.6,3.6,100,0.00,,,0.51,VWS V13.01,2013-08-04 22:09:00,
2013-08-04 17:10:00,71.2,71.2,29.18,South,183,0.0,0.0,100,0.00,,,0.51,VWS V13.01,2013-08-04 22:10:00,
2013-08-04 17:11:00,71.2,71.2,29.18,ENE,64,0.0,0.0,100,0.00,,,0.51,VWS V13.01,2013-08-04 22:11:00,
2013-08-04 17:14:00,71.2,71.2,29.18,ENE,72,0.0,0.0,100,0.00,,,0.51,VWS V13.01,2013-08-04 22:14:00,
2013-08-04 17:15:00,71.4,71.4,29.18,ENE,70,0.0,0.0,100,0.00,,,0.51,VWS V13.01,2013-08-04 22:15:00,
2013-08-04 17:16:00,71.2,71.2,29.18,ENE,78,0.0,0.0,100,0.00,,,0.51,VWS V13.01,2013-08-04 22:16:00,
2013-08-04 17:19:00,71.2,71.2,29.18,ENE,77,0.0,0.0,100,0.00,,,0.51,VWS V13.01,2013-08-04 22:19:00,
2013-08-04 17:20:00,71.4,71.4,29.18,NE,46,0.0,0.0,100,0.00,,,0.51,VWS V13.01,2013-08-04 22:20:00,
2013-08-04 17:21:00,71.4,71.4,29.18,NE,46,0.0,0.0,100,0.00,,,0.51,VWS V13.01,2013-08-04 22:21:00,
2013-08-04 17:24:00,71.4,71.4,29.18,East,90,0.0,0.0,100,0.00,,,0.51,VWS V13.01,2013-08-04 22:24:00,
2013-08-04 17:25:00,71.6,71.6,29.18,East,90,0.0,0.0,100,0.00,,,0.51,VWS V13.01,2013-08-04 22:25:00,
2013-08-04 17:27:00,71.6,71.6,29.18,East,90,0.0,0.0,100,0.00,,,0.51,VWS V13.01,2013-08-04 22:27:00,
2013-08-04 17:29:00,71.4,71.4,29.18,East,91,0.0,0.0,100,0.00,,,0.51,VWS V13.01,2013-08-04 22:29:00,
2013-08-04 17:30:00,71.4,71.4,29.18,South,172,0.0,0.0,100,0.00,,,0.51,VWS V13.01,2013-08-04 22:30:00,
2013-08-04 17:32:00,71.2,71.2,29.18,South,172,0.0,0.0,100,0.00,,,0.51,VWS V13.01,2013-08-04 22:32:00,
2013-08-04 17:34:00,71.2,71.2,29.18,South,172,0.0,0.0,100,0.00,,,0.51,VWS V13.01,2013-08-04 22:34:00,
2013-08-04 17:36:00,71.1,71.1,29.18,South,172,0.0,0.0,100,0.00,,,0.51,VWS V13.01,2013-08-04 22:36:00,
2013-08-04 17:37:00,71.2,71.2,29.18,SSE,154,0.0,0.0,100,0.00,,,0.51,VWS V13.01,2013-08-04 22:37:00,
2013-08-04 17:39:00,71.2,71.2,29.18,SSE,154,0.0,0.0,100,0.00,,,0.51,VWS V13.01,2013-08-04 22:39:00,
2013-08-04 17:40:00,71.2,71.2,29.18,ENE,76,0.0,0.0,100,0.00,,,0.51,VWS V13.01,2013-08-04 22:40:00,
2013-08-04 17:41:00,71.2,71.2,29.18,ENE,76,0.0,0.0,100,0.00,,,0.51,VWS V13.01,2013-08-04 22:41:00,
2013-08-04 17:42:00,71.2,71.2,29.18,ENE,76,0.0,0.0,100,0.00,,,0.51,VWS V13.01,2013-08-04 22:42:00,
2013-08-04 17:44:00,71.2,71.2,29.18,NE,51,0.0,0.0,100,0.00,,,0.51,VWS V13.01,2013-08-04 22:44:00,
2013-08-04 17:45:00,71.2,71.2,29.18,NE,52,0.0,0.0,100,0.00,,,0.51,VWS V13.01,2013-08-04 22:45:00,
2013-08-04 17:46:00,71.4,71.4,29.18,NE,52,0.0,0.0,100,0.00,,,0.51,VWS V13.01,2013-08-04 22:46:00,
2013-08-04 17:47:00,71.4,71.4,29.18,NE,52,0.0,0.0,100,0.00,,,0.51,VWS V13.01,2013-08-04 22:47:00,
2013-08-04 17:49:00,71.4,71.4,29.18,ENE,74,0.0,0.0,100,0.00,,,0.51,VWS V13.01,2013-08-04 22:49:00,
2013-08-04 17:50:00,71.6,71.6,29.18,ENE,74,0.0,0.0,100,0.00,,,0.51,VWS V13.01,2013-08-04 22:50:00,
2013-08-04 17:51:00,71.6,71.6,29.18,ENE,74,0.0,0.0,100,0.00,,,0.51,VWS V13.01,2013-08-04 22:51:00,
2013-08-04 17:53:00,71.6,71.6,29.18,ENE,74,0.0,0.0,100,0.00,,,0.51,VWS V13.01,2013-08-04 22:53:00,
2013-08-04 17:54:00,71.8,71.8,29.18,ENE,74,0.0,0.0,100,0.00,,,0.51,VWS V13.01,2013-08-04 22:54:00,
2013-08-04 17:55:00,71.8,71.8,29.18,ENE,73,0.0,0.0,100,0.00,,,0.51,VWS V13.01,2013-08-04 22:55:00,
2013-08-04 17:56:00,71.8,71.8,29.18,ENE,73,0.0,0.0,100,0.00,,,0.51,VWS V13.01,2013-08-04 22:56:00,
2013-08-04 17:58:00,72.0,72.0,29.18,ENE,73,0.0,0.0,100,0.00,,,0.51,VWS V13.01,2013-08-04 22:58:00,
2013-08-04 17:59:00,72.0,72.0,29.18,ENE,73,0.0,0.0,100,0.00,,,0.51,VWS V13.01,2013-08-04 22:59:00,
2013-08-04 18:00:00,72.0,72.0,29.18,ENE,73,0.0,0.0,100,0.00,,,0.51,VWS V13.01,2013-08-04 23:00:00,
2013-08-04 18:02:00,72.0,72.0,29.18,ENE,73,0.0,0.0,100,0.00,,,0.51,VWS V13.01,2013-08-04 23:02:00,
2013-08-04 18:03:00,72.1,72.2,29.18,ENE,73,0.0,0.0,100,0.00,,,0.51,VWS V13.01,2013-08-04 23:03:00,
2013-08-04 18:04:00,72.1,72.2,29.18,ENE,73,0.0,0.0,100,0.00,,,0.51,VWS V13.01,2013-08-04 23:04:00,
2013-08-04 18:05:00,72.1,72.2,29.18,South,184,0.0,0.0,100,0.00,,,0.51,VWS V13.01,2013-08-04 23:05:00,
2013-08-04 18:07:00,72.1,72.2,29.18,ENE,72,0.0,0.0,100,0.00,,,0.51,VWS V13.01,2013-08-04 23:07:00,
2013-08-04 18:08:00,72.1,72.2,29.18,ENE,70,0.0,0.0,100,0.00,,,0.51,VWS V13.01,2013-08-04 23:08:00,
2013-08-04 18:09:00,72.1,72.2,29.18,ENE,70,0.0,0.0,100,0.00,,,0.51,VWS V13.01,2013-08-04 23:09:00,
2013-08-04 18:10:00,72.3,72.3,29.18,ENE,70,0.0,0.0,100,0.00,,,0.51,VWS V13.01,2013-08-04 23:10:00,
2013-08-04 18:12:00,72.5,72.5,29.18,ENE,70,0.0,0.0,100,0.00,,,0.51,VWS V13.01,2013-08-04 23:12:00,
2013-08-04 18:13:00,72.5,72.5,29.18,ENE,70,0.0,0.0,100,0.00,,,0.51,VWS V13.01,2013-08-04 23:13:00,
2013-08-04 18:14:00,72.5,72.5,29.18,ENE,70,0.0,0.0,100,0.00,,,0.51,VWS V13.01,2013-08-04 23:14:00,
2013-08-04 18:15:00,72.7,72.7,29.18,ENE,70,0.0,0.0,100,0.00,,,0.51,VWS V13.01,2013-08-04 23:15:00,
2013-08-04 18:17:00,72.9,72.9,29.18,ENE,70,0.0,0.0,100,0.00,,,0.51,VWS V13.01,2013-08-04 23:17:00,
2013-08-04 18:19:00,72.9,72.9,29.18,ENE,70,0.0,0.0,100,0.00,,,0.51,VWS V13.01,2013-08-04 23:19:00,
2013-08-04 18:20:00,72.9,72.9,29.18,East,82,0.0,0.0,100,0.00,,,0.51,VWS V13.01,2013-08-04 23:20:00,
2013-08-04 18:22:00,72.9,72.9,29.18,East,82,0.0,0.0,100,0.00,,,0.51,VWS V13.01,2013-08-04 23:22:00,
2013-08-04 18:24:00,72.9,72.9,29.18,East,82,0.0,0.0,100,0.00,,,0.51,VWS V13.01,2013-08-04 23:24:00,
2013-08-04 18:25:00,72.9,72.9,29.18,East,82,0.0,0.0,100,0.00,,,0.51,VWS V13.01,2013-08-04 23:25:00,
2013-08-04 18:27:00,72.5,72.5,29.18,ESE,102,0.0,0.0,100,0.00,,,0.51,VWS V13.01,2013-08-04 23:27:00,
2013-08-04 18:29:00,72.5,72.5,29.18,SSW,196,0.0,0.0,100,0.00,,,0.51,VWS V13.01,2013-08-04 23:29:00,
2013-08-04 18:30:00,72.5,72.5,29.18,SSW,195,0.0,0.0,100,0.00,,,0.51,VWS V13.01,2013-08-04 23:30:00,
2013-08-04 18:32:00,72.3,72.3,29.18,SE,141,4.9,4.9,100,0.00,,,0.51,VWS V13.01,2013-08-04 23:32:00,
2013-08-04 18:34:00,72.1,72.2,29.18,South,191,3.6,3.6,100,0.00,,,0.51,VWS V13.01,2013-08-04 23:34:00,
2013-08-04 18:35:00,72.1,72.2,29.18,SSW,192,0.0,0.0,100,0.00,,,0.51,VWS V13.01,2013-08-04 23:35:00,
2013-08-04 18:37:00,72.1,72.2,29.18,South,190,0.0,0.0,100,0.00,,,0.51,VWS V13.01,2013-08-04 23:37:00,
2013-08-04 18:39:00,72.1,72.2,29.18,SSW,192,0.0,0.0,100,0.00,,,0.51,VWS V13.01,2013-08-04 23:39:00,
2013-08-04 18:40:00,72.1,72.2,29.15,SSW,192,0.0,0.0,100,0.00,,,0.51,VWS V13.01,2013-08-04 23:40:00,
2013-08-04 18:43:00,72.3,72.3,29.15,South,188,3.1,3.1,100,0.00,,,0.51,VWS V13.01,2013-08-04 23:43:00,
2013-08-04 18:44:00,72.3,72.3,29.15,South,184,0.0,0.0,100,0.00,,,0.51,VWS V13.01,2013-08-04 23:44:00,
2013-08-04 18:45:00,72.3,72.3,29.15,South,184,3.6,3.6,100,0.00,,,0.51,VWS V13.01,2013-08-04 23:45:00,
2013-08-04 18:48:00,72.3,72.3,29.15,SSW,193,3.6,3.6,100,0.00,,,0.51,VWS V13.01,2013-08-04 23:48:00,
2013-08-04 18:49:00,72.1,72.2,29.15,South,184,5.4,5.4,100,0.00,,,0.51,VWS V13.01,2013-08-04 23:49:00,
2013-08-04 18:50:00,72.1,72.2,29.15,SSE,161,2.7,2.7,100,0.00,,,0.51,VWS V13.01,2013-08-04 23:50:00,
2013-08-04 18:53:00,72.0,72.0,29.15,South,178,6.3,6.3,100,0.00,,,0.51,VWS V13.01,2013-08-04 23:53:00,
2013-08-04 18:54:00,72.1,72.2,29.15,South,185,3.1,3.1,100,0.00,,,0.51,VWS V13.01,2013-08-04 23:54:00,
2013-08-04 18:55:00,72.1,72.2,29.15,South,182,3.6,3.6,100,0.00,,,0.51,VWS V13.01,2013-08-04 23:55:00,
2013-08-04 18:58:00,72.1,72.2,29.15,South,187,3.6,3.6,100,0.00,,,0.51,VWS V13.01,2013-08-04 23:58:00,
2013-08-04 18:59:00,72.3,72.3,29.15,South,186,5.4,5.4,100,0.00,,,0.51,VWS V13.01,2013-08-04 23:59:00,
2013-08-04 19:00:00,72.1,72.2,29.15,South,187,4.0,4.0,100,0.00,,,0.51,VWS V13.01,2013-08-05 00:00:00,
2013-08-04 19:01:00,72.1,72.2,29.15,South,179,5.4,5.4,100,0.00,,,0.51,VWS V13.01,2013-08-05 00:01:00,
2013-08-04 19:03:00,72.1,72.2,29.15,South,183,5.4,5.4,100,0.00,,,0.51,VWS V13.01,2013-08-05 00:03:00,
2013-08-04 19:04:00,72.3,72.3,29.15,South,183,4.0,4.0,100,0.00,,,0.51,VWS V13.01,2013-08-05 00:04:00,
2013-08-04 19:05:00,72.3,72.3,29.15,South,174,4.9,4.9,100,0.00,,,0.51,VWS V13.01,2013-08-05 00:05:00,
2013-08-04 19:06:00,72.3,72.3,29.15,South,186,5.4,5.4,100,0.00,,,0.51,VWS V13.01,2013-08-05 00:06:00,
2013-08-04 19:08:00,72.3,72.3,29.15,South,178,5.8,5.8,100,0.00,,,0.51,VWS V13.01,2013-08-05 00:08:00,
2013-08-04 19:09:00,72.3,72.3,29.15,South,182,4.9,4.9,100,0.00,,,0.51,VWS V13.01,2013-08-05 00:09:00,
2013-08-04 19:10:00,72.3,72.3,29.15,South,180,4.9,4.9,100,0.00,,,0.51,VWS V13.01,2013-08-05 00:10:00,
2013-08-04 19:11:00,72.3,72.3,29.15,South,176,0.0,0.0,100,0.00,,,0.51,VWS V13.01,2013-08-05 00:11:00,
2013-08-04 19:13:00,72.3,72.3,29.15,South,181,3.1,3.1,100,0.00,,,0.51,VWS V13.01,2013-08-05 00:13:00,
2013-08-04 19:14:00,72.3,72.3,29.15,South,181,5.4,5.4,100,0.00,,,0.51,VWS V13.01,2013-08-05 00:14:00,
2013-08-04 19:15:00,72.1,72.2,29.15,South,191,6.3,6.3,100,0.00,,,0.51,VWS V13.01,2013-08-05 00:15:00,
2013-08-04 19:16:00,72.1,72.2,29.15,South,188,5.8,5.8,100,0.00,,,0.51,VWS V13.01,2013-08-05 00:16:00,
2013-08-04 19:18:00,72.3,72.3,29.15,South,189,2.7,2.7,100,0.00,,,0.51,VWS V13.01,2013-08-05 00:18:00,
2013-08-04 19:19:00,72.3,72.3,29.15,South,190,0.0,0.0,100,0.00,,,0.51,VWS V13.01,2013-08-05 00:19:00,
2013-08-04 19:20:00,72.3,72.3,29.15,SSW,201,2.7,2.7,100,0.00,,,0.51,VWS V13.01,2013-08-05 00:20:00,
2013-08-04 19:21:00,72.3,72.3,29.15,SSW,194,5.4,5.4,100,0.00,,,0.51,VWS V13.01,2013-08-05 00:21:00,
2013-08-04 19:23:00,72.1,72.2,29.15,South,185,5.4,5.4,100,0.00,,,0.51,VWS V13.01,2013-08-05 00:23:00,
2013-08-04 19:24:00,72.1,72.2,29.15,South,174,5.4,5.4,100,0.00,,,0.51,VWS V13.01,2013-08-05 00:24:00,
2013-08-04 19:25:00,72.1,72.2,29.15,South,180,4.9,4.9,100,0.00,,,0.51,VWS V13.01,2013-08-05 00:25:00,
2013-08-04 19:26:00,72.1,72.2,29.15,SSW,198,4.0,4.0,100,0.00,,,0.51,VWS V13.01,2013-08-05 00:26:00,
2013-08-04 19:29:00,72.1,72.2,29.15,SSE,164,3.1,3.1,100,0.00,,,0.51,VWS V13.01,2013-08-05 00:29:00,
2013-08-04 19:30:00,72.3,72.3,29.15,South,188,2.7,2.7,100,0.00,,,0.51,VWS V13.01,2013-08-05 00:30:00,
2013-08-04 19:31:00,72.1,72.2,29.15,South,182,4.0,4.0,100,0.00,,,0.51,VWS V13.01,2013-08-05 00:31:00,
2013-08-04 19:32:00,72.1,72.2,29.15,South,183,5.8,5.8,100,0.00,,,0.51,VWS V13.01,2013-08-05 00:32:00,
2013-08-04 19:34:00,72.1,72.2,29.15,South,183,0.0,0.0,100,0.00,,,0.51,VWS V13.01,2013-08-05 00:34:00,
2013-08-04 19:35:00,72.0,72.0,29.15,South,180,4.0,4.0,100,0.00,,,0.51,VWS V13.01,2013-08-05 00:35:00,
2013-08-04 19:36:00,72.0,72.0,29.15,South,180,2.2,2.2,100,0.00,,,0.51,VWS V13.01,2013-08-05 00:36:00,
2013-08-04 19:37:00,72.0,72.0,29.15,South,182,5.8,5.8,100,0.00,,,0.51,VWS V13.01,2013-08-05 00:37:00,
2013-08-04 19:39:00,72.0,72.0,29.15,South,188,4.9,4.9,100,0.00,,,0.51,VWS V13.01,2013-08-05 00:39:00,
2013-08-04 19:40:00,72.0,72.0,29.15,South,188,0.0,0.0,100,0.00,,,0.51,VWS V13.01,2013-08-05 00:40:00,
2013-08-04 19:41:00,72.0,72.0,29.15,SSE,168,2.2,2.2,100,0.00,,,0.51,VWS V13.01,2013-08-05 00:41:00,
2013-08-04 19:42:00,72.0,72.0,29.15,South,177,0.0,0.0,100,0.00,,,0.51,VWS V13.01,2013-08-05 00:42:00,
2013-08-04 19:44:00,71.8,71.8,29.15,SSW,193,2.7,2.7,100,0.00,,,0.51,VWS V13.01,2013-08-05 00:44:00,
2013-08-04 19:45:00,71.8,71.8,29.15,South,187,5.4,5.4,100,0.00,,,0.51,VWS V13.01,2013-08-05 00:45:00,
2013-08-04 19:46:00,71.8,71.8,29.15,South,188,4.9,4.9,100,0.00,,,0.51,VWS V13.01,2013-08-05 00:46:00,
2013-08-04 19:47:00,72.0,72.0,29.15,South,188,2.7,2.7,100,0.00,,,0.51,VWS V13.01,2013-08-05 00:47:00,
2013-08-04 19:49:00,71.8,71.8,29.15,South,185,4.0,4.0,100,0.00,,,0.51,VWS V13.01,2013-08-05 00:49:00,
2013-08-04 19:50:00,72.0,72.0,29.15,South,185,2.2,2.2,100,0.00,,,0.51,VWS V13.01,2013-08-05 00:50:00,
2013-08-04 19:51:00,72.0,72.0,29.15,South,185,4.0,4.0,100,0.00,,,0.51,VWS V13.01,2013-08-05 00:51:00,
2013-08-04 19:52:00,72.0,72.0,29.15,South,187,4.0,4.0,100,0.00,,,0.51,VWS V13.01,2013-08-05 00:52:00,
2013-08-04 19:54:00,71.8,71.8,29.15,SSW,198,2.7,2.7,100,0.00,,,0.51,VWS V13.01,2013-08-05 00:54:00,
2013-08-04 19:55:00,72.0,72.0,29.15,South,182,5.4,5.4,100,0.00,,,0.51,VWS V13.01,2013-08-05 00:55:00,
2013-08-04 19:56:00,71.8,71.8,29.15,South,182,5.4,5.4,100,0.00,,,0.51,VWS V13.01,2013-08-05 00:56:00,
2013-08-04 19:57:00,71.8,71.8,29.15,South,182,3.6,3.6,100,0.00,,,0.51,VWS V13.01,2013-08-05 00:57:00,
2013-08-04 19:59:00,71.6,71.6,29.15,South,179,5.4,5.4,100,0.00,,,0.51,VWS V13.01,2013-08-05 00:59:00,
2013-08-04 20:00:00,71.6,71.6,29.15,South,187,5.8,5.8,100,0.00,,,0.51,VWS V13.01,2013-08-05 01:00:00,
2013-08-04 20:01:00,71.6,71.6,29.15,South,182,5.4,5.4,100,0.00,,,0.51,VWS V13.01,2013-08-05 01:01:00,
2013-08-04 20:02:00,71.6,71.6,29.15,South,182,5.4,5.4,100,0.00,,,0.51,VWS V13.01,2013-08-05 01:02:00,
2013-08-04 20:04:00,71.6,71.6,29.15,South,182,5.4,5.4,100,0.00,,,0.51,VWS V13.01,2013-08-05 01:04:00,
2013-08-04 20:05:00,71.4,71.4,29.15,South,181,5.4,5.4,100,0.00,,,0.51,VWS V13.01,2013-08-05 01:05:00,
2013-08-04 20:06:00,71.4,71.4,29.15,South,181,5.4,5.4,100,0.00,,,0.51,VWS V13.01,2013-08-05 01:06:00,
2013-08-04 20:07:00,71.6,71.6,29.15,SSW,198,5.4,5.4,100,0.00,,,0.51,VWS V13.01,2013-08-05 01:07:00,
2013-08-04 20:09:00,71.4,71.4,29.15,South,191,4.5,4.5,100,0.00,,,0.51,VWS V13.01,2013-08-05 01:09:00,
2013-08-04 20:10:00,71.4,71.4,29.15,South,183,4.9,4.9,100,0.00,,,0.51,VWS V13.01,2013-08-05 01:10:00,
2013-08-04 20:11:00,71.4,71.4,29.15,South,180,5.8,5.8,100,0.00,,,0.51,VWS V13.01,2013-08-05 01:11:00,
2013-08-04 20:12:00,71.4,71.4,29.15,South,182,5.4,5.4,100,0.00,,,0.51,VWS V13.01,2013-08-05 01:12:00,
2013-08-04 20:14:00,71.6,71.6,29.15,South,180,5.4,5.4,100,0.00,,,0.51,VWS V13.01,2013-08-05 01:14:00,
2013-08-04 20:15:00,71.6,71.6,29.15,South,185,5.8,5.8,100,0.00,,,0.51,VWS V13.01,2013-08-05 01:15:00,
2013-08-04 20:16:00,71.6,71.6,29.15,South,185,5.4,5.4,100,0.00,,,0.51,VWS V13.01,2013-08-05 01:16:00,
2013-08-04 20:17:00,71.4,71.4,29.15,South,180,6.7,6.7,100,0.00,,,0.51,VWS V13.01,2013-08-05 01:17:00,
2013-08-04 20:19:00,71.4,71.4,29.15,South,183,5.4,5.4,100,0.00,,,0.51,VWS V13.01,2013-08-05 01:19:00,
2013-08-04 20:20:00,71.4,71.4,29.15,South,181,5.4,5.4,100,0.00,,,0.51,VWS V13.01,2013-08-05 01:20:00,
2013-08-04 20:21:00,71.4,71.4,29.15,South,177,5.8,5.8,100,0.00,,,0.51,VWS V13.01,2013-08-05 01:21:00,
2013-08-04 20:22:00,71.4,71.4,29.15,South,179,5.8,5.8,100,0.00,,,0.51,VWS V13.01,2013-08-05 01:22:00,
2013-08-04 20:24:00,71.2,71.2,29.15,South,182,2.2,2.2,100,0.00,,,0.51,VWS V13.01,2013-08-05 01:24:00,
2013-08-04 20:25:00,71.2,71.2,29.15,South,183,0.0,0.0,100,0.00,,,0.51,VWS V13.01,2013-08-05 01:25:00,
2013-08-04 20:26:00,71.2,71.2,29.15,South,183,0.0,0.0,100,0.00,,,0.51,VWS V13.01,2013-08-05 01:26:00,
2013-08-04 20:27:00,71.2,71.2,29.15,South,187,4.0,4.0,100,0.00,,,0.51,VWS V13.01,2013-08-05 01:27:00,
2013-08-04 20:29:00,71.2,71.2,29.15,SSW,192,0.0,0.0,100,0.00,,,0.51,VWS V13.01,2013-08-05 01:29:00,
2013-08-04 20:30:00,71.2,71.2,29.15,SSW,192,2.7,2.7,100,0.00,,,0.51,VWS V13.01,2013-08-05 01:30:00,
2013-08-04 20:31:00,71.2,71.2,29.15,SSW,192,4.0,4.0,100,0.00,,,0.51,VWS V13.01,2013-08-05 01:31:00,
2013-08-04 20:32:00,71.2,71.2,29.15,SSW,193,2.7,2.7,100,0.00,,,0.51,VWS V13.01,2013-08-05 01:32:00,
2013-08-04 20:34:00,71.2,71.2,29.15,South,181,0.0,0.0,100,0.00,,,0.51,VWS V13.01,2013-08-05 01:34:00,
2013-08-04 20:35:00,71.2,71.2,29.15,South,181,0.0,0.0,100,0.00,,,0.51,VWS V13.01,2013-08-05 01:35:00,
2013-08-04 20:36:00,71.2,71.2,29.15,South,181,0.0,0.0,100,0.00,,,0.51,VWS V13.01,2013-08-05 01:36:00,
2013-08-04 20:37:00,71.2,71.2,29.15,South,181,0.0,0.0,100,0.00,,,0.51,VWS V13.01,2013-08-05 01:37:00,
2013-08-04 20:39:00,71.2,71.2,29.15,South,181,0.0,0.0,100,0.00,,,0.51,VWS V13.01,2013-08-05 01:39:00,
2013-08-04 20:40:00,71.2,71.2,29.15,South,181,0.0,0.0,100,0.00,,,0.51,VWS V13.01,2013-08-05 01:40:00,
2013-08-04 20:41:00,71.2,71.2,29.15,South,181,0.0,0.0,100,0.00,,,0.51,VWS V13.01,2013-08-05 01:41:00,
2013-08-04 20:42:00,71.1,71.1,29.15,South,181,0.0,0.0,100,0.00,,,0.51,VWS V13.01,2013-08-05 01:42:00,
2013-08-04 20:45:00,71.1,71.1,29.15,South,181,0.0,0.0,100,0.00,,,0.51,VWS V13.01,2013-08-05 01:45:00,
2013-08-04 20:46:00,71.1,71.1,29.15,South,181,0.0,0.0,100,0.00,,,0.51,VWS V13.01,2013-08-05 01:46:00,
2013-08-04 20:47:00,71.1,71.1,29.15,South,181,0.0,0.0,100,0.00,,,0.51,VWS V13.01,2013-08-05 01:47:00,
2013-08-04 20:50:00,71.1,71.1,29.15,South,181,0.0,0.0,100,0.00,,,0.51,VWS V13.01,2013-08-05 01:50:00,
2013-08-04 20:52:00,71.1,71.1,29.15,South,181,0.0,0.0,100,0.00,,,0.51,VWS V13.01,2013-08-05 01:52:00,
2013-08-04 20:55:00,71.2,71.2,29.15,South,181,0.0,0.0,100,0.00,,,0.51,VWS V13.01,2013-08-05 01:55:00,
2013-08-04 20:56:00,71.2,71.2,29.15,South,181,0.0,0.0,100,0.00,,,0.51,VWS V13.01,2013-08-05 01:56:00,
2013-08-04 20:57:00,71.2,71.2,29.15,South,181,0.0,0.0,100,0.00,,,0.51,VWS V13.01,2013-08-05 01:57:00,
2013-08-04 21:00:00,71.2,71.2,29.15,South,181,0.0,0.0,100,0.00,,,0.51,VWS V13.01,2013-08-05 02:00:00,
2013-08-04 21:01:00,71.2,71.2,29.15,South,181,0.0,0.0,100,0.00,,,0.51,VWS V13.01,2013-08-05 02:01:00,
2013-08-04 21:02:00,71.2,71.2,29.15,South,181,0.0,0.0,100,0.00,,,0.51,VWS V13.01,2013-08-05 02:02:00,
2013-08-04 21:05:00,71.2,71.2,29.15,South,181,0.0,0.0,100,0.00,,,0.51,VWS V13.01,2013-08-05 02:05:00,
2013-08-04 21:07:00,71.2,71.2,29.15,South,181,0.0,0.0,100,0.00,,,0.51,VWS V13.01,2013-08-05 02:07:00,
2013-08-04 21:08:00,71.2,71.2,29.15,South,181,0.0,0.0,100,0.00,,,0.51,VWS V13.01,2013-08-05 02:08:00,
2013-08-04 21:10:00,71.2,71.2,29.15,South,181,0.0,0.0,100,0.00,,,0.51,VWS V13.01,2013-08-05 02:10:00,
2013-08-04 21:12:00,71.2,71.2,29.15,South,181,0.0,0.0,100,0.00,,,0.51,VWS V13.01,2013-08-05 02:12:00,
2013-08-04 21:13:00,71.2,71.2,29.15,South,181,0.0,0.0,100,0.00,,,0.51,VWS V13.01,2013-08-05 02:13:00,
2013-08-04 21:15:00,71.2,71.2,29.15,South,181,0.0,0.0,100,0.00,,,0.51,VWS V13.01,2013-08-05 02:15:00,
2013-08-04 21:17:00,71.4,71.4,29.15,South,181,0.0,0.0,100,0.00,,,0.51,VWS V13.01,2013-08-05 02:17:00,
2013-08-04 21:18:00,71.4,71.4,29.15,South,181,0.0,0.0,100,0.00,,,0.51,VWS V13.01,2013-08-05 02:18:00,
2013-08-04 21:20:00,71.6,71.6,29.15,South,181,0.0,0.0,100,0.00,,,0.51,VWS V13.01,2013-08-05 02:20:00,
2013-08-04 21:21:00,71.4,71.4,29.15,South,181,0.0,0.0,100,0.00,,,0.51,VWS V13.01,2013-08-05 02:21:00,
2013-08-04 21:22:00,71.4,71.4,29.15,South,181,0.0,0.0,100,0.00,,,0.51,VWS V13.01,2013-08-05 02:22:00,
2013-08-04 21:23:00,71.4,71.4,29.15,South,181,0.0,0.0,100,0.00,,,0.51,VWS V13.01,2013-08-05 02:23:00,
2013-08-04 21:25:00,71.4,71.4,29.15,South,181,0.0,0.0,100,0.00,,,0.51,VWS V13.01,2013-08-05 02:25:00,
2013-08-04 21:26:00,71.4,71.4,29.15,South,181,0.0,0.0,100,0.00,,,0.51,VWS V13.01,2013-08-05 02:26:00,
2013-08-04 21:28:00,71.4,71.4,29.15,South,181,0.0,0.0,100,0.00,,,0.51,VWS V13.01,2013-08-05 02:28:00,
2013-08-04 21:30:00,71.4,71.4,29.15,South,181,0.0,0.0,100,0.00,,,0.51,VWS V13.01,2013-08-05 02:30:00,
2013-08-04 21:31:00,71.2,71.2,29.15,South,181,0.0,0.0,100,0.00,,,0.51,VWS V13.01,2013-08-05 02:31:00,
2013-08-04 21:33:00,71.2,71.2,29.15,South,181,0.0,0.0,100,0.00,,,0.51,VWS V13.01,2013-08-05 02:33:00,
2013-08-04 21:35:00,71.2,71.2,29.15,South,181,0.0,0.0,100,0.00,,,0.51,VWS V13.01,2013-08-05 02:35:00,
2013-08-04 21:36:00,71.4,71.4,29.15,South,181,0.0,0.0,100,0.00,,,0.51,VWS V13.01,2013-08-05 02:36:00,
2013-08-04 21:38:00,71.4,71.4,29.15,South,181,0.0,0.0,100,0.00,,,0.51,VWS V13.01,2013-08-05 02:38:00,
2013-08-04 21:40:00,71.4,71.4,29.15,South,181,0.0,0.0,100,0.00,,,0.51,VWS V13.01,2013-08-05 02:40:00,
2013-08-04 21:41:00,71.2,71.2,29.15,South,181,0.0,0.0,100,0.00,,,0.51,VWS V13.01,2013-08-05 02:41:00,
2013-08-04 21:43:00,71.2,71.2,29.15,South,181,0.0,0.0,100,0.00,,,0.51,VWS V13.01,2013-08-05 02:43:00,
2013-08-04 21:45:00,71.2,71.2,29.15,South,181,0.0,0.0,100,0.00,,,0.51,VWS V13.01,2013-08-05 02:45:00,
2013-08-04 21:46:00,71.2,71.2,29.15,South,181,0.0,0.0,100,0.00,,,0.51,VWS V13.01,2013-08-05 02:46:00,
2013-08-04 21:48:00,71.2,71.2,29.15,South,181,0.0,0.0,100,0.00,,,0.51,VWS V13.01,2013-08-05 02:48:00,
2013-08-04 21:50:00,71.2,71.2,29.15,South,181,0.0,0.0,100,0.00,,,0.51,VWS V13.01,2013-08-05 02:50:00,
2013-08-04 21:51:00,71.2,71.2,29.15,South,181,0.0,0.0,100,0.00,,,0.51,VWS V13.01,2013-08-05 02:51:00,
2013-08-04 21:53:00,71.2,71.2,29.15,South,181,0.0,0.0,100,0.00,,,0.51,VWS V13.01,2013-08-05 02:53:00,
2013-08-04 21:55:00,71.2,71.2,29.15,South,181,0.0,0.0,100,0.00,,,0.51,VWS V13.01,2013-08-05 02:55:00,
2013-08-04 21:56:00,71.2,71.2,29.15,South,181,0.0,0.0,100,0.00,,,0.51,VWS V13.01,2013-08-05 02:56:00,
2013-08-04 21:58:00,71.2,71.2,29.15,South,181,0.0,0.0,100,0.00,,,0.51,VWS V13.01,2013-08-05 02:58:00,
2013-08-04 22:00:00,71.2,71.2,29.15,South,181,0.0,0.0,100,0.00,,,0.51,VWS V13.01,2013-08-05 03:00:00,
2013-08-04 22:01:00,71.2,71.2,29.15,South,181,0.0,0.0,100,0.00,,,0.51,VWS V13.01,2013-08-05 03:01:00,
2013-08-04 22:03:00,71.2,71.2,29.15,South,181,0.0,0.0,100,0.00,,,0.51,VWS V13.01,2013-08-05 03:03:00,
2013-08-04 22:05:00,71.2,71.2,29.15,South,181,0.0,0.0,100,0.00,,,0.51,VWS V13.01,2013-08-05 03:05:00,
2013-08-04 22:06:00,71.2,71.2,29.15,South,181,0.0,0.0,100,0.00,,,0.51,VWS V13.01,2013-08-05 03:06:00,
2013-08-04 22:08:00,71.1,71.1,29.15,South,181,0.0,0.0,100,0.00,,,0.51,VWS V13.01,2013-08-05 03:08:00,
2013-08-04 22:10:00,71.1,71.1,29.15,South,181,0.0,0.0,100,0.00,,,0.51,VWS V13.01,2013-08-05 03:10:00,
2013-08-04 22:12:00,71.1,71.1,29.15,South,181,0.0,0.0,100,0.00,,,0.51,VWS V13.01,2013-08-05 03:12:00,
2013-08-04 22:13:00,71.1,71.1,29.15,South,181,0.0,0.0,100,0.00,,,0.51,VWS V13.01,2013-08-05 03:13:00,
2013-08-04 22:14:00,71.1,71.1,29.15,South,181,0.0,0.0,100,0.00,,,0.51,VWS V13.01,2013-08-05 03:14:00,
2013-08-04 22:15:00,71.1,71.1,29.15,South,181,0.0,0.0,100,0.00,,,0.51,VWS V13.01,2013-08-05 03:15:00,
2013-08-04 22:17:00,71.1,71.1,29.15,South,181,0.0,0.0,100,0.00,,,0.51,VWS V13.01,2013-08-05 03:17:00,
2013-08-04 22:18:00,71.1,71.1,29.15,ENE,57,0.0,0.0,100,0.00,,,0.51,VWS V13.01,2013-08-05 03:18:00,
2013-08-04 22:19:00,71.1,71.1,29.15,ENE,57,0.0,0.0,100,0.00,,,0.51,VWS V13.01,2013-08-05 03:19:00,
2013-08-04 22:20:00,71.1,71.1,29.15,ENE,57,0.0,0.0,100,0.00,,,0.51,VWS V13.01,2013-08-05 03:20:00,
2013-08-04 22:22:00,71.1,71.1,29.15,ENE,57,0.0,0.0,100,0.00,,,0.51,VWS V13.01,2013-08-05 03:22:00,
2013-08-04 22:23:00,71.1,71.1,29.15,ENE,70,0.0,0.0,100,0.00,,,0.51,VWS V13.01,2013-08-05 03:23:00,
2013-08-04 22:24:00,71.1,71.1,29.15,ENE,70,0.0,0.0,100,0.00,,,0.51,VWS V13.01,2013-08-05 03:24:00,
2013-08-04 22:25:00,71.1,71.1,29.15,East,79,0.0,0.0,100,0.00,,,0.51,VWS V13.01,2013-08-05 03:25:00,
2013-08-04 22:27:00,71.1,71.1,29.15,East,79,0.0,0.0,100,0.00,,,0.51,VWS V13.01,2013-08-05 03:27:00,
2013-08-04 22:28:00,71.1,71.1,29.15,East,79,0.0,0.0,100,0.00,,,0.51,VWS V13.01,2013-08-05 03:28:00,
2013-08-04 22:29:00,71.1,71.1,29.15,East,79,0.0,0.0,100,0.00,,,0.51,VWS V13.01,2013-08-05 03:29:00,
2013-08-04 22:30:00,71.1,71.1,29.15,East,79,0.0,0.0,100,0.00,,,0.51,VWS V13.01,2013-08-05 03:30:00,
2013-08-04 22:32:00,71.1,71.1,29.15,East,79,0.0,0.0,100,0.00,,,0.51,VWS V13.01,2013-08-05 03:32:00,
2013-08-04 22:33:00,71.1,71.1,29.15,East,79,0.0,0.0,100,0.00,,,0.51,VWS V13.01,2013-08-05 03:33:00,
2013-08-04 22:34:00,71.1,71.1,29.15,East,79,0.0,0.0,100,0.00,,,0.51,VWS V13.01,2013-08-05 03:34:00,
2013-08-04 22:35:00,71.1,71.1,29.15,ENE,76,0.0,0.0,100,0.00,,,0.51,VWS V13.01,2013-08-05 03:35:00,
2013-08-04 22:37:00,71.1,71.1,29.15,ENE,76,0.0,0.0,100,0.00,,,0.51,VWS V13.01,2013-08-05 03:37:00,
2013-08-04 22:38:00,71.1,71.1,29.15,ENE,76,0.0,0.0,100,0.00,,,0.51,VWS V13.01,2013-08-05 03:38:00,
2013-08-04 22:39:00,71.1,71.1,29.15,ENE,76,0.0,0.0,100,0.00,,,0.51,VWS V13.01,2013-08-05 03:39:00,
2013-08-04 22:41:00,71.1,71.1,29.15,East,93,0.0,0.0,100,0.00,,,0.51,VWS V13.01,2013-08-05 03:41:00,
2013-08-04 22:42:00,71.1,71.1,29.15,ENE,66,0.0,0.0,100,0.00,,,0.51,VWS V13.01,2013-08-05 03:42:00,
2013-08-04 22:43:00,71.1,71.1,29.15,ENE,71,0.0,0.0,100,0.00,,,0.51,VWS V13.01,2013-08-05 03:43:00,
2013-08-04 22:44:00,71.1,71.1,29.15,ENE,71,0.0,0.0,100,0.00,,,0.51,VWS V13.01,2013-08-05 03:44:00,
2013-08-04 22:46:00,71.1,71.1,29.15,ENE,71,0.0,0.0,100,0.00,,,0.51,VWS V13.01,2013-08-05 03:46:00,
2013-08-04 22:47:00,71.1,71.1,29.15,ENE,71,0.0,0.0,100,0.00,,,0.51,VWS V13.01,2013-08-05 03:47:00,
2013-08-04 22:49:00,70.9,70.9,29.15,ENE,71,0.0,0.0,100,0.00,,,0.51,VWS V13.01,2013-08-05 03:49:00,
2013-08-04 22:51:00,70.9,70.9,29.15,ENE,71,0.0,0.0,100,0.00,,,0.51,VWS V13.01,2013-08-05 03:51:00,
2013-08-04 22:52:00,70.9,70.9,29.15,ENE,71,0.0,0.0,100,0.00,,,0.51,VWS V13.01,2013-08-05 03:52:00,
2013-08-04 22:54:00,70.9,70.9,29.15,ENE,71,0.0,0.0,100,0.00,,,0.51,VWS V13.01,2013-08-05 03:54:00,
2013-08-04 22:56:00,70.9,70.9,29.15,ENE,71,0.0,0.0,100,0.00,,,0.51,VWS V13.01,2013-08-05 03:56:00,
2013-08-04 22:58:00,70.9,70.9,29.15,ENE,71,0.0,0.0,100,0.00,,,0.51,VWS V13.01,2013-08-05 03:58:00,
2013-08-04 22:59:00,70.9,70.9,29.15,ENE,71,0.0,0.0,100,0.00,,,0.51,VWS V13.01,2013-08-05 03:59:00,
2013-08-04 23:01:00,70.7,70.7,29.15,ENE,71,0.0,0.0,100,0.00,,,0.51,VWS V13.01,2013-08-05 04:01:00,
2013-08-04 23:06:00,70.5,70.5,29.15,ENE,71,0.0,0.0,100,0.00,,,0.51,VWS V13.01,2013-08-05 04:06:00,
2013-08-04 23:07:00,70.5,70.5,29.15,ENE,71,0.0,0.0,100,0.00,,,0.51,VWS V13.01,2013-08-05 04:07:00,
2013-08-04 23:11:00,70.5,70.5,29.15,ENE,71,0.0,0.0,100,0.00,,,0.51,VWS V13.01,2013-08-05 04:11:00,
2013-08-04 23:12:00,70.5,70.5,29.15,ENE,71,0.0,0.0,100,0.00,,,0.51,VWS V13.01,2013-08-05 04:12:00,
2013-08-04 23:16:00,70.5,70.5,29.15,ENE,71,0.0,0.0,100,0.00,,,0.51,VWS V13.01,2013-08-05 04:16:00,
2013-08-04 23:17:00,70.5,70.5,29.15,ENE,71,0.0,0.0,100,0.00,,,0.51,VWS V13.01,2013-08-05 04:17:00,
2013-08-04 23:21:00,70.5,70.5,29.15,ENE,71,0.0,0.0,100,0.00,,,0.51,VWS V13.01,2013-08-05 04:21:00,
2013-08-04 23:22:00,70.5,70.5,29.15,ENE,71,0.0,0.0,100,0.00,,,0.51,VWS V13.01,2013-08-05 04:22:00,
2013-08-04 23:26:00,70.5,70.5,29.15,ENE,71,0.0,0.0,100,0.00,,,0.51,VWS V13.01,2013-08-05 04:26:00,
2013-08-04 23:27:00,70.5,70.5,29.15,ENE,74,0.0,0.0,100,0.00,,,0.51,VWS V13.01,2013-08-05 04:27:00,
2013-08-04 23:31:00,70.5,70.5,29.15,ENE,74,0.0,0.0,100,0.00,,,0.51,VWS V13.01,2013-08-05 04:31:00,
2013-08-04 23:32:00,70.5,70.5,29.15,ESE,118,0.0,0.0,100,0.00,,,0.51,VWS V13.01,2013-08-05 04:32:00,
2013-08-04 23:36:00,70.3,70.3,29.15,East,100,0.0,0.0,100,0.00,,,0.51,VWS V13.01,2013-08-05 04:36:00,
2013-08-04 23:37:00,70.3,70.3,29.15,East,100,0.0,0.0,100,0.00,,,0.51,VWS V13.01,2013-08-05 04:37:00,
2013-08-04 23:41:00,70.5,70.5,29.15,ESE,105,0.0,0.0,100,0.00,,,0.51,VWS V13.01,2013-08-05 04:41:00,
2013-08-04 23:42:00,70.5,70.5,29.15,ESE,105,0.0,0.0,100,0.00,,,0.51,VWS V13.01,2013-08-05 04:42:00,
2013-08-04 23:46:00,70.3,70.3,29.15,ESE,105,0.0,0.0,100,0.00,,,0.51,VWS V13.01,2013-08-05 04:46:00,
2013-08-04 23:47:00,70.3,70.3,29.15,ESE,105,0.0,0.0,100,0.00,,,0.51,VWS V13.01,2013-08-05 04:47:00,
2013-08-04 23:51:00,70.3,70.3,29.15,ESE,105,0.0,0.0,100,0.00,,,0.51,VWS V13.01,2013-08-05 04:51:00,
2013-08-04 23:52:00,70.3,70.3,29.15,ESE,105,0.0,0.0,100,0.00,,,0.51,VWS V13.01,2013-08-05 04:52:00,
2013-08-04 23:56:00,70.3,70.3,29.15,ESE,105,0.0,0.0,100,0.00,,,0.51,VWS V13.01,2013-08-05 04:56:00,
2013-08-04 23:57:00,70.5,70.5,29.15,ESE,105,0.0,0.0,100,0.00,,,0.51,VWS V13.01,2013-08-05 04:57:00,